Observation data for Hackberry on 09/11/2019      Previous  Date       Current Mesonet Observations  Soil Data  Daily Summary Page  Observations in Plain Language
KHA3 110500Z 14013KT 28/17 A3003 RMK A01 T02800172  RH  052%=      5-min Rain = 0
KHA3 110501Z 15013KT 28/17 A3003 RMK A01 T02800172  RH  052%=      5-min Rain = 0
KHA3 110502Z 15014KT 28/17 A3003 RMK A01 T02790172  RH  052%=      5-min Rain = 0
KHA3 110503Z 14019KT 28/17 A3003 RMK A01 T02790173  RH  052%=      5-min Rain = 0
KHA3 110504Z 15017KT 28/17 A3003 RMK A01 T02790173  RH  053%=      5-min Rain = 0
KHA3 110505Z 14018KT 28/17 A3003 RMK A01 T02780173  RH  053%=      5-min Rain = 0
KHA3 110506Z 14016KT 28/17 A3003 RMK A01 T02780173  RH  053%=      5-min Rain = 0
KHA3 110507Z 15018G23KT 28/17 A3003 RMK A01 T02780173  RH  053%=      5-min Rain = 0
KHA3 110508Z 16019G24KT 28/17 A3003 RMK A01 T02770173  RH  053%=      5-min Rain = 0
KHA3 110509Z 14019G24KT 28/17 A3003 RMK A01 T02770173  RH  053%=      5-min Rain = 0
KHA3 110510Z 15017KT 28/17 A3003 RMK A01 T02770173  RH  053%=      5-min Rain = 0
KHA3 110511Z 15016KT 28/17 A3003 RMK A01 T02760173  RH  053%=      5-min Rain = 0
KHA3 110512Z 15017KT 28/17 A3003 RMK A01 T02760172  RH  053%=      5-min Rain = 0
KHA3 110513Z 15015KT 28/17 A3003 RMK A01 T02750172  RH  053%=      5-min Rain = 0
KHA3 110514Z 15017G22KT 28/17 A3003 RMK A01 T02750172  RH  053%=      5-min Rain = 0
KHA3 110515Z 15016G22KT 27/17 A3003 RMK A01 T02740172  RH  054%=      5-min Rain = 0
KHA3 110516Z 15018KT 27/17 A3003 RMK A01 T02740172  RH  054%=      5-min Rain = 0
KHA3 110517Z 15016KT 28/17 A3003 RMK A01 T02750172  RH  054%=      5-min Rain = 0
KHA3 110518Z 16016KT 27/17 A3003 RMK A01 T02740172  RH  054%=      5-min Rain = 0
KHA3 110519Z 15013KT 27/17 A3003 RMK A01 T02740172  RH  054%=      5-min Rain = 0
KHA3 110520Z 15014KT 27/17 A3003 RMK A01 T02730172  RH  054%=      5-min Rain = 0
KHA3 110521Z 16016KT 27/17 A3003 RMK A01 T02730172  RH  054%=      5-min Rain = 0
KHA3 110522Z 15015KT 27/17 A3003 RMK A01 T02730172  RH  054%=      5-min Rain = 0
KHA3 110523Z 16015KT 27/17 A3003 RMK A01 T02730172  RH  054%=      5-min Rain = 0
KHA3 110524Z 15017KT 27/17 A3003 RMK A01 T02720172  RH  054%=      5-min Rain = 0
KHA3 110525Z 16017KT 27/17 A3003 RMK A01 T02720172  RH  054%=      5-min Rain = 0
KHA3 110526Z 16016KT 27/17 A3003 RMK A01 T02720172  RH  054%=      5-min Rain = 0
KHA3 110527Z 16015KT 27/17 A3003 RMK A01 T02720172  RH  054%=      5-min Rain = 0
KHA3 110528Z 16013KT 27/17 A3003 RMK A01 T02720171  RH  054%=      5-min Rain = 0
KHA3 110529Z 16018G23KT 27/17 A3003 RMK A01 T02710171  RH  054%=      5-min Rain = 0
KHA3 110530Z 16018KT 27/17 A3003 RMK A01 T02720171  RH  054%=      5-min Rain = 0
KHA3 110531Z 16019KT 27/17 A3003 RMK A01 T02720171  RH  054%=      5-min Rain = 0
KHA3 110532Z 16015KT 27/17 A3003 RMK A01 T02720171  RH  054%=      5-min Rain = 0
KHA3 110533Z 16018KT 27/17 A3003 RMK A01 T02720171  RH  054%=      5-min Rain = 0
KHA3 110534Z 16018G23KT 27/17 A3003 RMK A01 T02720171  RH  054%=      5-min Rain = 0
KHA3 110535Z 16018G25KT 27/17 A3003 RMK A01 T02720171  RH  054%=      5-min Rain = 0
KHA3 110536Z 16017KT 27/17 A3003 RMK A01 T02720170  RH  054%=      5-min Rain = 0
KHA3 110537Z 17016G22KT 27/17 A3003 RMK A01 T02720170  RH  054%=      5-min Rain = 0
KHA3 110538Z 16017KT 27/17 A3003 RMK A01 T02710171  RH  054%=      5-min Rain = 0
KHA3 110539Z 16018KT 27/17 A3003 RMK A01 T02710170  RH  054%=      5-min Rain = 0
KHA3 110540Z 16016KT 27/17 A3003 RMK A01 T02710170  RH  054%=      5-min Rain = 0
KHA3 110541Z 16015G20KT 27/17 A3003 RMK A01 T02700170  RH  054%=      5-min Rain = 0
KHA3 110542Z 17017G24KT 27/17 A3003 RMK A01 T02700170  RH  054%=      5-min Rain = 0
KHA3 110543Z 16014KT 27/17 A3003 RMK A01 T02700170  RH  054%=      5-min Rain = 0
KHA3 110544Z 16016KT 27/17 A3003 RMK A01 T02700170  RH  054%=      5-min Rain = 0
KHA3 110545Z 16018KT 27/17 A3003 RMK A01 T02690170  RH  055%=      5-min Rain = 0
KHA3 110546Z 16016KT 27/17 A3003 RMK A01 T02690170  RH  055%=      5-min Rain = 0
KHA3 110547Z 16016KT 27/17 A3003 RMK A01 T02690170  RH  055%=      5-min Rain = 0
KHA3 110548Z 16016KT 27/17 A3003 RMK A01 T02690170  RH  055%=      5-min Rain = 0
KHA3 110549Z 16016KT 27/17 A3003 RMK A01 T02690171  RH  055%=      5-min Rain = 0
KHA3 110550Z 16013KT 27/17 A3003 RMK A01 T02690171  RH  055%=      5-min Rain = 0
KHA3 110551Z 16015G20KT 27/17 A3003 RMK A01 T02680170  RH  055%=      5-min Rain = 0
KHA3 110552Z 16014KT 27/17 A3003 RMK A01 T02680171  RH  055%=      5-min Rain = 0
KHA3 110553Z 16013G18KT 27/17 A3003 RMK A01 T02680171  RH  055%=      5-min Rain = 0
KHA3 110554Z 16012KT 27/17 A3003 RMK A01 T02670170  RH  055%=      5-min Rain = 0
KHA3 110555Z 16015KT 27/17 A3003 RMK A01 T02660170  RH  056%=      5-min Rain = 0
KHA3 110556Z 16017KT 27/17 A3003 RMK A01 T02660171  RH  056%=      5-min Rain = 0
KHA3 110557Z 16015KT 27/17 A3003 RMK A01 T02670170  RH  056%=      5-min Rain = 0
KHA3 110558Z 16015KT 27/17 A3003 RMK A01 T02670171  RH  056%=      5-min Rain = 0
KHA3 110559Z 16013G18KT 27/17 A3003 RMK A01 T02670171  RH  056%=      5-min Rain = 0
KHA3 110600Z 15014KT 27/17 A3003 RMK A01 T02660170  RH  056%=      5-min Rain = 0
KHA3 110601Z 15015KT 27/17 A3003 RMK A01 T02660170  RH  056%=      5-min Rain = 0
KHA3 110602Z 16013G18KT 27/17 A3003 RMK A01 T02660170  RH  056%=      5-min Rain = 0
KHA3 110603Z 16017KT 27/17 A3003 RMK A01 T02660171  RH  056%=      5-min Rain = 0
KHA3 110604Z 16013KT 27/17 A3003 RMK A01 T02650171  RH  056%=      5-min Rain = 0
KHA3 110605Z 16013KT 27/17 A3003 RMK A01 T02650171  RH  056%=      5-min Rain = 0
KHA3 110606Z 16015KT 27/17 A3003 RMK A01 T02650171  RH  056%=      5-min Rain = 0
KHA3 110607Z 16015KT 26/17 A3003 RMK A01 T02640171  RH  056%=      5-min Rain = 0
KHA3 110608Z 15013KT 26/17 A3003 RMK A01 T02640171  RH  056%=      5-min Rain = 0
KHA3 110609Z 16012KT 26/17 A3003 RMK A01 T02640171  RH  056%=      5-min Rain = 0
KHA3 110610Z 15013KT 26/17 A3003 RMK A01 T02640171  RH  057%=      5-min Rain = 0
KHA3 110611Z 16012KT 26/17 A3003 RMK A01 T02630171  RH  057%=      5-min Rain = 0
KHA3 110612Z 16012KT 26/17 A3003 RMK A01 T02630171  RH  057%=      5-min Rain = 0
KHA3 110613Z 17012KT 26/17 A3003 RMK A01 T02630171  RH  057%=      5-min Rain = 0
KHA3 110614Z 16013KT 26/17 A3003 RMK A01 T02630171  RH  057%=      5-min Rain = 0
KHA3 110615Z 17014KT 26/17 A3003 RMK A01 T02620171  RH  057%=      5-min Rain = 0
KHA3 110616Z 16015KT 26/17 A3003 RMK A01 T02630171  RH  057%=      5-min Rain = 0
KHA3 110617Z 17015KT 26/17 A3003 RMK A01 T02630171  RH  057%=      5-min Rain = 0
KHA3 110618Z 17013KT 26/17 A3003 RMK A01 T02630171  RH  057%=      5-min Rain = 0
KHA3 110619Z 17014KT 26/17 A3003 RMK A01 T02630171  RH  057%=      5-min Rain = 0
KHA3 110620Z 17013KT 26/17 A3003 RMK A01 T02630171  RH  057%=      5-min Rain = 0
KHA3 110621Z 17013KT 26/17 A3003 RMK A01 T02630171  RH  057%=      5-min Rain = 0
KHA3 110622Z 17015KT 26/17 A3003 RMK A01 T02620171  RH  057%=      5-min Rain = 0
KHA3 110623Z 17012KT 26/17 A3003 RMK A01 T02620171  RH  057%=      5-min Rain = 0
KHA3 110624Z 17014G20KT 26/17 A3003 RMK A01 T02610171  RH  058%=      5-min Rain = 0
KHA3 110625Z 17013KT 26/17 A3003 RMK A01 T02610171  RH  058%=      5-min Rain = 0
KHA3 110626Z 17015KT 26/17 A3003 RMK A01 T02610171  RH  058%=      5-min Rain = 0
KHA3 110627Z 17013KT 26/17 A3003 RMK A01 T02610171  RH  058%=      5-min Rain = 0
KHA3 110628Z 17014KT 26/17 A3003 RMK A01 T02610171  RH  058%=      5-min Rain = 0
KHA3 110629Z 17012KT 26/17 A3003 RMK A01 T02610171  RH  058%=      5-min Rain = 0
KHA3 110630Z 17013KT 26/17 A3003 RMK A01 T02610172  RH  058%=      5-min Rain = 0
KHA3 110631Z 17013KT 26/17 A3003 RMK A01 T02600171  RH  058%=      5-min Rain = 0
KHA3 110632Z 17013KT 26/17 A3003 RMK A01 T02600172  RH  058%=      5-min Rain = 0
KHA3 110633Z 16014KT 26/17 A3003 RMK A01 T02600172  RH  058%=      5-min Rain = 0
KHA3 110634Z 17013KT 26/17 A3003 RMK A01 T02600172  RH  058%=      5-min Rain = 0
KHA3 110635Z 16014KT 26/17 A3003 RMK A01 T02590172  RH  058%=      5-min Rain = 0
KHA3 110636Z 17013KT 26/17 A3003 RMK A01 T02590171  RH  058%=      5-min Rain = 0
KHA3 110637Z 17015KT 26/17 A3003 RMK A01 T02590171  RH  058%=      5-min Rain = 0
KHA3 110638Z 16014KT 26/17 A3003 RMK A01 T02600172  RH  058%=      5-min Rain = 0
KHA3 110639Z 17013KT 26/17 A3003 RMK A01 T02590171  RH  058%=      5-min Rain = 0
KHA3 110640Z 17015KT 26/17 A3003 RMK A01 T02600172  RH  058%=      5-min Rain = 0
KHA3 110641Z 17012KT 26/17 A3003 RMK A01 T02600172  RH  058%=      5-min Rain = 0
KHA3 110642Z 17012KT 26/17 A3003 RMK A01 T02600172  RH  058%=      5-min Rain = 0
KHA3 110643Z 17013KT 26/17 A3003 RMK A01 T02590172  RH  059%=      5-min Rain = 0
KHA3 110644Z 17012KT 26/17 A3003 RMK A01 T02590172  RH  059%=      5-min Rain = 0
KHA3 110645Z 17013KT 26/17 A3003 RMK A01 T02590172  RH  059%=      5-min Rain = 0
KHA3 110646Z 16011KT 26/17 A3003 RMK A01 T02590172  RH  059%=      5-min Rain = 0
KHA3 110647Z 17012KT 26/17 A3003 RMK A01 T02580172  RH  059%=      5-min Rain = 0
KHA3 110648Z 17013KT 26/17 A3004 RMK A01 T02580172  RH  059%=      5-min Rain = 0
KHA3 110649Z 17013KT 26/17 A3004 RMK A01 T02580172  RH  059%=      5-min Rain = 0
KHA3 110650Z 17012KT 26/17 A3004 RMK A01 T02580172  RH  059%=      5-min Rain = 0
KHA3 110651Z 17012KT 26/17 A3004 RMK A01 T02590173  RH  059%=      5-min Rain = 0
KHA3 110652Z 17013KT 26/17 A3003 RMK A01 T02590173  RH  059%=      5-min Rain = 0
KHA3 110653Z 17013KT 26/17 A3003 RMK A01 T02580172  RH  059%=      5-min Rain = 0
KHA3 110654Z 17012KT 26/17 A3003 RMK A01 T02590173  RH  059%=      5-min Rain = 0
KHA3 110655Z 17012KT 26/17 A3003 RMK A01 T02590172  RH  059%=      5-min Rain = 0
KHA3 110656Z 17012KT 26/17 A3003 RMK A01 T02590173  RH  059%=      5-min Rain = 0
KHA3 110657Z 17011KT 26/17 A3003 RMK A01 T02580173  RH  059%=      5-min Rain = 0
KHA3 110658Z 17013KT 26/17 A3003 RMK A01 T02580172  RH  059%=      5-min Rain = 0
KHA3 110659Z 17011KT 26/17 A3003 RMK A01 T02580173  RH  059%=      5-min Rain = 0
KHA3 110700Z 17010KT 26/17 A3003 RMK A01 T02580173  RH  059%=      5-min Rain = 0
KHA3 110701Z 17011KT 26/17 A3003 RMK A01 T02580173  RH  059%=      5-min Rain = 0
KHA3 110702Z 18013KT 26/17 A3003 RMK A01 T02580173  RH  060%=      5-min Rain = 0
KHA3 110703Z 17012KT 26/17 A3003 RMK A01 T02580173  RH  059%=      5-min Rain = 0
KHA3 110704Z 17011KT 26/17 A3003 RMK A01 T02580173  RH  059%=      5-min Rain = 0
KHA3 110705Z 18010KT 26/17 A3003 RMK A01 T02580173  RH  059%=      5-min Rain = 0
KHA3 110706Z 18011KT 26/17 A3003 RMK A01 T02580173  RH  059%=      5-min Rain = 0
KHA3 110707Z 17009KT 26/17 A3003 RMK A01 T02580173  RH  059%=      5-min Rain = 0
KHA3 110708Z 18012KT 26/17 A3003 RMK A01 T02580173  RH  059%=      5-min Rain = 0
KHA3 110709Z 18010KT 26/17 A3003 RMK A01 T02570173  RH  060%=      5-min Rain = 0
KHA3 110710Z 18010KT 26/17 A3003 RMK A01 T02580173  RH  060%=      5-min Rain = 0
KHA3 110711Z 18011KT 26/17 A3003 RMK A01 T02570173  RH  060%=      5-min Rain = 0
KHA3 110712Z 18012KT 26/17 A3003 RMK A01 T02580174  RH  060%=      5-min Rain = 0
KHA3 110713Z 18010KT 26/17 A3003 RMK A01 T02580174  RH  060%=      5-min Rain = 0
KHA3 110714Z 18009KT 26/17 A3003 RMK A01 T02580173  RH  059%=      5-min Rain = 0
KHA3 110715Z 18010KT 26/17 A3003 RMK A01 T02570173  RH  060%=      5-min Rain = 0
KHA3 110716Z 18009KT 26/17 A3003 RMK A01 T02570173  RH  060%=      5-min Rain = 0
KHA3 110717Z 18010KT 26/17 A3003 RMK A01 T02570174  RH  060%=      5-min Rain = 0
KHA3 110718Z 18011KT 26/17 A3003 RMK A01 T02570174  RH  060%=      5-min Rain = 0
KHA3 110719Z 18010KT 26/17 A3003 RMK A01 T02570174  RH  060%=      5-min Rain = 0
KHA3 110720Z 18010KT 26/17 A3003 RMK A01 T02570174  RH  060%=      5-min Rain = 0
KHA3 110721Z 18011KT 26/17 A3003 RMK A01 T02570174  RH  060%=      5-min Rain = 0
KHA3 110722Z 18009KT 26/17 A3003 RMK A01 T02570174  RH  060%=      5-min Rain = 0
KHA3 110723Z 18009KT 26/17 A3003 RMK A01 T02570174  RH  060%=      5-min Rain = 0
KHA3 110724Z 19009KT 26/17 A3003 RMK A01 T02570174  RH  060%=      5-min Rain = 0
KHA3 110725Z 18010KT 26/17 A3003 RMK A01 T02560174  RH  061%=      5-min Rain = 0
KHA3 110726Z 18010KT 26/17 A3003 RMK A01 T02560174  RH  061%=      5-min Rain = 0
KHA3 110727Z 18011KT 26/17 A3003 RMK A01 T02560174  RH  061%=      5-min Rain = 0
KHA3 110728Z 18010KT 26/17 A3003 RMK A01 T02560174  RH  060%=      5-min Rain = 0
KHA3 110729Z 19009KT 26/17 A3003 RMK A01 T02560174  RH  060%=      5-min Rain = 0
KHA3 110730Z 19010KT 26/17 A3003 RMK A01 T02560174  RH  061%=      5-min Rain = 0
KHA3 110731Z 18011KT 26/17 A3003 RMK A01 T02560174  RH  061%=      5-min Rain = 0
KHA3 110732Z 19011KT 26/18 A3003 RMK A01 T02560175  RH  061%=      5-min Rain = 0
KHA3 110733Z 19011KT 26/18 A3003 RMK A01 T02570175  RH  060%=      5-min Rain = 0
KHA3 110734Z 18009KT 26/18 A3003 RMK A01 T02570175  RH  060%=      5-min Rain = 0
KHA3 110735Z 18010KT 26/18 A3003 RMK A01 T02570175  RH  061%=      5-min Rain = 0
KHA3 110736Z 18010KT 26/18 A3003 RMK A01 T02560175  RH  061%=      5-min Rain = 0
KHA3 110737Z 18010KT 26/18 A3003 RMK A01 T02560175  RH  061%=      5-min Rain = 0
KHA3 110738Z 18010KT 26/18 A3003 RMK A01 T02560176  RH  061%=      5-min Rain = 0
KHA3 110739Z 18009KT 26/18 A3003 RMK A01 T02560175  RH  061%=      5-min Rain = 0
KHA3 110740Z 18009KT 26/18 A3003 RMK A01 T02560175  RH  061%=      5-min Rain = 0
KHA3 110741Z 18010KT 26/18 A3003 RMK A01 T02550175  RH  061%=      5-min Rain = 0
KHA3 110742Z 19009KT 26/18 A3003 RMK A01 T02550175  RH  061%=      5-min Rain = 0
KHA3 110743Z 18009KT 26/18 A3003 RMK A01 T02550176  RH  061%=      5-min Rain = 0
KHA3 110744Z 18009KT 26/18 A3003 RMK A01 T02550175  RH  061%=      5-min Rain = 0
KHA3 110745Z 18010KT 26/18 A3003 RMK A01 T02550176  RH  061%=      5-min Rain = 0
KHA3 110746Z 19010KT 26/18 A3003 RMK A01 T02550175  RH  061%=      5-min Rain = 0
KHA3 110747Z 19010KT 26/18 A3003 RMK A01 T02550175  RH  061%=      5-min Rain = 0
KHA3 110748Z 19009KT 26/18 A3003 RMK A01 T02550175  RH  061%=      5-min Rain = 0
KHA3 110749Z 18008KT 26/18 A3003 RMK A01 T02550175  RH  061%=      5-min Rain = 0
KHA3 110750Z 18008KT 26/18 A3003 RMK A01 T02550176  RH  062%=      5-min Rain = 0
KHA3 110751Z 18009KT 25/18 A3003 RMK A01 T02540175  RH  062%=      5-min Rain = 0
KHA3 110752Z 18009KT 25/18 A3003 RMK A01 T02540176  RH  062%=      5-min Rain = 0
KHA3 110753Z 18009KT 25/18 A3003 RMK A01 T02540176  RH  062%=      5-min Rain = 0
KHA3 110754Z 18009KT 25/18 A3003 RMK A01 T02540176  RH  062%=      5-min Rain = 0
KHA3 110755Z 17008KT 25/18 A3003 RMK A01 T02540175  RH  062%=      5-min Rain = 0
KHA3 110756Z 17008KT 25/18 A3003 RMK A01 T02530175  RH  062%=      5-min Rain = 0
KHA3 110757Z 17008KT 25/18 A3003 RMK A01 T02520175  RH  062%=      5-min Rain = 0
KHA3 110758Z 17008KT 25/18 A3003 RMK A01 T02520176  RH  063%=      5-min Rain = 0
KHA3 110759Z 17008KT 25/18 A3003 RMK A01 T02510175  RH  063%=      5-min Rain = 0
KHA3 110800Z 17008KT 25/18 A3003 RMK A01 T02510175  RH  063%=      5-min Rain = 0
KHA3 110801Z 17008KT 25/18 A3003 RMK A01 T02500175  RH  063%=      5-min Rain = 0
KHA3 110802Z 16008KT 25/18 A3003 RMK A01 T02500176  RH  063%=      5-min Rain = 0
KHA3 110803Z 16008KT 25/18 A3003 RMK A01 T02500176  RH  063%=      5-min Rain = 0
KHA3 110804Z 16008KT 25/18 A3003 RMK A01 T02500176  RH  063%=      5-min Rain = 0
KHA3 110805Z 16008KT 25/18 A3003 RMK A01 T02500176  RH  063%=      5-min Rain = 0
KHA3 110806Z 17007KT 25/18 A3003 RMK A01 T02500176  RH  063%=      5-min Rain = 0
KHA3 110807Z 17008KT 25/18 A3003 RMK A01 T02500176  RH  063%=      5-min Rain = 0
KHA3 110808Z 17007KT 25/18 A3003 RMK A01 T02500176  RH  063%=      5-min Rain = 0
KHA3 110809Z 17007KT 25/18 A3003 RMK A01 T02500176  RH  063%=      5-min Rain = 0
KHA3 110810Z 17008KT 25/18 A3003 RMK A01 T02500176  RH  063%=      5-min Rain = 0
KHA3 110811Z 17008KT 25/18 A3003 RMK A01 T02490176  RH  064%=      5-min Rain = 0
KHA3 110812Z 17008KT 25/18 A3003 RMK A01 T02500176  RH  063%=      5-min Rain = 0
KHA3 110813Z 17008KT 25/18 A3003 RMK A01 T02500176  RH  063%=      5-min Rain = 0
KHA3 110814Z 17007KT 25/18 A3003 RMK A01 T02500176  RH  063%=      5-min Rain = 0
KHA3 110815Z 16007KT 25/18 A3003 RMK A01 T02500176  RH  064%=      5-min Rain = 0
KHA3 110816Z 16007KT 25/18 A3003 RMK A01 T02490176  RH  064%=      5-min Rain = 0
KHA3 110817Z 16007KT 25/18 A3003 RMK A01 T02490176  RH  064%=      5-min Rain = 0
KHA3 110818Z 16007KT 25/18 A3003 RMK A01 T02480176  RH  064%=      5-min Rain = 0
KHA3 110819Z 17008KT 25/18 A3003 RMK A01 T02480176  RH  064%=      5-min Rain = 0
KHA3 110820Z 16007KT 25/18 A3003 RMK A01 T02470176  RH  064%=      5-min Rain = 0
KHA3 110821Z 17007KT 25/18 A3003 RMK A01 T02470175  RH  065%=      5-min Rain = 0
KHA3 110822Z 17007KT 25/18 A3003 RMK A01 T02470176  RH  065%=      5-min Rain = 0
KHA3 110823Z 17007KT 25/18 A3003 RMK A01 T02460176  RH  065%=      5-min Rain = 0
KHA3 110824Z 17007KT 25/18 A3003 RMK A01 T02450175  RH  065%=      5-min Rain = 0
KHA3 110825Z 17007KT 24/18 A3003 RMK A01 T02440175  RH  065%=      5-min Rain = 0
KHA3 110826Z 16008KT 24/18 A3003 RMK A01 T02430175  RH  066%=      5-min Rain = 0
KHA3 110827Z 16008KT 24/18 A3003 RMK A01 T02430175  RH  066%=      5-min Rain = 0
KHA3 110828Z 16008KT 24/18 A3003 RMK A01 T02430175  RH  066%=      5-min Rain = 0
KHA3 110829Z 16008KT 24/18 A3003 RMK A01 T02430175  RH  066%=      5-min Rain = 0
KHA3 110830Z 16008KT 24/18 A3003 RMK A01 T02430175  RH  066%=      5-min Rain = 0
KHA3 110831Z 16008KT 24/18 A3003 RMK A01 T02440176  RH  066%=      5-min Rain = 0
KHA3 110832Z 16009KT 24/18 A3003 RMK A01 T02430175  RH  066%=      5-min Rain = 0
KHA3 110833Z 16009KT 24/18 A3003 RMK A01 T02430175  RH  066%=      5-min Rain = 0
KHA3 110834Z 16009KT 24/18 A3003 RMK A01 T02440176  RH  066%=      5-min Rain = 0
KHA3 110835Z 16009KT 24/18 A3003 RMK A01 T02430175  RH  066%=      5-min Rain = 0
KHA3 110836Z 16009KT 24/18 A3003 RMK A01 T02430176  RH  066%=      5-min Rain = 0
KHA3 110837Z 17009KT 24/18 A3003 RMK A01 T02430176  RH  066%=      5-min Rain = 0
KHA3 110838Z 17009KT 24/18 A3003 RMK A01 T02430175  RH  066%=      5-min Rain = 0
KHA3 110839Z 16010KT 24/18 A3003 RMK A01 T02430176  RH  066%=      5-min Rain = 0
KHA3 110840Z 16009KT 24/18 A3003 RMK A01 T02430176  RH  066%=      5-min Rain = 0
KHA3 110841Z 17009KT 24/18 A3003 RMK A01 T02430176  RH  066%=      5-min Rain = 0
KHA3 110842Z 16009KT 24/18 A3003 RMK A01 T02420175  RH  066%=      5-min Rain = 0
KHA3 110843Z 16009KT 24/18 A3003 RMK A01 T02420176  RH  067%=      5-min Rain = 0
KHA3 110844Z 16009KT 24/18 A3003 RMK A01 T02420176  RH  067%=      5-min Rain = 0
KHA3 110845Z 16008KT 24/18 A3003 RMK A01 T02410176  RH  067%=      5-min Rain = 0
KHA3 110846Z 17008KT 24/18 A3003 RMK A01 T02410176  RH  067%=      5-min Rain = 0
KHA3 110847Z 16008KT 24/18 A3003 RMK A01 T02400175  RH  067%=      5-min Rain = 0
KHA3 110848Z 17008KT 24/18 A3003 RMK A01 T02410176  RH  067%=      5-min Rain = 0
KHA3 110849Z 17009KT 24/18 A3003 RMK A01 T02400175  RH  067%=      5-min Rain = 0
KHA3 110850Z 16009KT 24/18 A3003 RMK A01 T02390175  RH  067%=      5-min Rain = 0
KHA3 110851Z 16009KT 24/18 A3003 RMK A01 T02390175  RH  067%=      5-min Rain = 0
KHA3 110852Z 16008KT 24/18 A3003 RMK A01 T02390175  RH  067%=      5-min Rain = 0
KHA3 110853Z 16008KT 24/18 A3003 RMK A01 T02390175  RH  067%=      5-min Rain = 0
KHA3 110854Z 16009KT 24/18 A3003 RMK A01 T02390176  RH  068%=      5-min Rain = 0
KHA3 110855Z 16010KT 24/18 A3003 RMK A01 T02400176  RH  068%=      5-min Rain = 0
KHA3 110856Z 16010KT 24/18 A3003 RMK A01 T02400176  RH  067%=      5-min Rain = 0
KHA3 110857Z 17009KT 24/18 A3003 RMK A01 T02410176  RH  067%=      5-min Rain = 0
KHA3 110858Z 17009KT 24/18 A3003 RMK A01 T02410176  RH  067%=      5-min Rain = 0
KHA3 110859Z 17009KT 24/18 A3003 RMK A01 T02400176  RH  067%=      5-min Rain = 0
KHA3 110900Z 17009KT 24/18 A3003 RMK A01 T02400176  RH  068%=      5-min Rain = 0
KHA3 110901Z 17009KT 24/18 A3003 RMK A01 T02400177  RH  068%=      5-min Rain = 0
KHA3 110902Z 16008KT 24/18 A3003 RMK A01 T02390176  RH  068%=      5-min Rain = 0
KHA3 110903Z 17009KT 24/18 A3003 RMK A01 T02390176  RH  068%=      5-min Rain = 0
KHA3 110904Z 17009KT 24/18 A3003 RMK A01 T02380176  RH  068%=      5-min Rain = 0
KHA3 110905Z 17008KT 24/18 A3003 RMK A01 T02380176  RH  068%=      5-min Rain = 0
KHA3 110906Z 17008KT 24/18 A3003 RMK A01 T02380176  RH  069%=      5-min Rain = 0
KHA3 110907Z 17008KT 24/18 A3003 RMK A01 T02370176  RH  069%=      5-min Rain = 0
KHA3 110908Z 17008KT 24/18 A3003 RMK A01 T02370177  RH  069%=      5-min Rain = 0
KHA3 110909Z 17008KT 24/18 A3003 RMK A01 T02360176  RH  069%=      5-min Rain = 0
KHA3 110910Z 17008KT 24/18 A3003 RMK A01 T02360176  RH  069%=      5-min Rain = 0
KHA3 110911Z 16009KT 24/18 A3003 RMK A01 T02360176  RH  069%=      5-min Rain = 0
KHA3 110912Z 17008KT 24/18 A3003 RMK A01 T02350176  RH  069%=      5-min Rain = 0
KHA3 110913Z 17008KT 24/18 A3003 RMK A01 T02350176  RH  070%=      5-min Rain = 0
KHA3 110914Z 17008KT 24/18 A3003 RMK A01 T02350176  RH  070%=      5-min Rain = 0
KHA3 110915Z 17009KT 23/18 A3003 RMK A01 T02340176  RH  070%=      5-min Rain = 0
KHA3 110916Z 17009KT 23/18 A3003 RMK A01 T02340177  RH  070%=      5-min Rain = 0
KHA3 110917Z 17008KT 23/18 A3003 RMK A01 T02340176  RH  070%=      5-min Rain = 0
KHA3 110918Z 17009KT 23/18 A3003 RMK A01 T02340176  RH  070%=      5-min Rain = 0
KHA3 110919Z 17009KT 23/18 A3003 RMK A01 T02340177  RH  070%=      5-min Rain = 0
KHA3 110920Z 17008KT 23/18 A3003 RMK A01 T02340177  RH  070%=      5-min Rain = 0
KHA3 110921Z 17009KT 23/18 A3003 RMK A01 T02340177  RH  070%=      5-min Rain = 0
KHA3 110922Z 17009KT 23/18 A3003 RMK A01 T02340177  RH  070%=      5-min Rain = 0
KHA3 110923Z 16009KT 23/18 A3003 RMK A01 T02340177  RH  070%=      5-min Rain = 0
KHA3 110924Z 16008KT 23/18 A3003 RMK A01 T02330177  RH  070%=      5-min Rain = 0
KHA3 110925Z 16009KT 23/18 A3003 RMK A01 T02330177  RH  071%=      5-min Rain = 0
KHA3 110926Z 16008KT 23/18 A3003 RMK A01 T02320176  RH  071%=      5-min Rain = 0
KHA3 110927Z 16008KT 23/18 A3003 RMK A01 T02320177  RH  071%=      5-min Rain = 0
KHA3 110928Z 16008KT 23/18 A3003 RMK A01 T02310177  RH  071%=      5-min Rain = 0
KHA3 110929Z 16008KT 23/18 A3003 RMK A01 T02310176  RH  071%=      5-min Rain = 0
KHA3 110930Z 16008KT 23/18 A3003 RMK A01 T02310177  RH  071%=      5-min Rain = 0
KHA3 110931Z 17008KT 23/18 A3003 RMK A01 T02300176  RH  072%=      5-min Rain = 0
KHA3 110932Z 17008KT 23/18 A3003 RMK A01 T02300177  RH  072%=      5-min Rain = 0
KHA3 110933Z 17008KT 23/18 A3003 RMK A01 T02300176  RH  072%=      5-min Rain = 0
KHA3 110934Z 17009KT 23/18 A3003 RMK A01 T02300177  RH  072%=      5-min Rain = 0
KHA3 110935Z 17009KT 23/18 A3003 RMK A01 T02290176  RH  072%=      5-min Rain = 0
KHA3 110936Z 17010KT 23/18 A3003 RMK A01 T02290177  RH  072%=      5-min Rain = 0
KHA3 110937Z 17009KT 23/18 A3003 RMK A01 T02290176  RH  072%=      5-min Rain = 0
KHA3 110938Z 17009KT 23/18 A3003 RMK A01 T02290177  RH  072%=      5-min Rain = 0
KHA3 110939Z 17010KT 23/18 A3003 RMK A01 T02290177  RH  072%=      5-min Rain = 0
KHA3 110940Z 17010KT 23/18 A3003 RMK A01 T02300176  RH  072%=      5-min Rain = 0
KHA3 110941Z 17010KT 23/18 A3003 RMK A01 T02310177  RH  072%=      5-min Rain = 0
KHA3 110942Z 18010KT 23/18 A3003 RMK A01 T02320177  RH  071%=      5-min Rain = 0
KHA3 110943Z 17010KT 23/18 A3003 RMK A01 T02320177  RH  071%=      5-min Rain = 0
KHA3 110944Z 17011KT 23/18 A3003 RMK A01 T02330177  RH  071%=      5-min Rain = 0
KHA3 110945Z 17011KT 23/18 A3003 RMK A01 T02330177  RH  071%=      5-min Rain = 0
KHA3 110946Z 17012KT 23/18 A3003 RMK A01 T02340177  RH  070%=      5-min Rain = 0
KHA3 110947Z 17011KT 24/18 A3003 RMK A01 T02350177  RH  070%=      5-min Rain = 0
KHA3 110948Z 17011KT 24/18 A3003 RMK A01 T02350177  RH  070%=      5-min Rain = 0
KHA3 110949Z 17011KT 24/18 A3003 RMK A01 T02350177  RH  070%=      5-min Rain = 0
KHA3 110950Z 17011KT 24/18 A3003 RMK A01 T02350177  RH  070%=      5-min Rain = 0
KHA3 110951Z 17011KT 24/18 A3003 RMK A01 T02360177  RH  069%=      5-min Rain = 0
KHA3 110952Z 17010KT 24/18 A3003 RMK A01 T02360177  RH  069%=      5-min Rain = 0
KHA3 110953Z 17011KT 24/18 A3003 RMK A01 T02360177  RH  069%=      5-min Rain = 0
KHA3 110954Z 17012KT 24/18 A3003 RMK A01 T02360177  RH  069%=      5-min Rain = 0
KHA3 110955Z 16012KT 24/18 A3003 RMK A01 T02360177  RH  069%=      5-min Rain = 0
KHA3 110956Z 17012KT 24/18 A3003 RMK A01 T02370176  RH  069%=      5-min Rain = 0
KHA3 110957Z 17011KT 24/18 A3003 RMK A01 T02360176  RH  069%=      5-min Rain = 0
KHA3 110958Z 17011KT 24/18 A3003 RMK A01 T02370176  RH  069%=      5-min Rain = 0
KHA3 110959Z 16011KT 24/18 A3003 RMK A01 T02370176  RH  069%=      5-min Rain = 0
KHA3 111000Z 16011KT 24/18 A3003 RMK A01 T02360176  RH  069%=      5-min Rain = 0
KHA3 111001Z 16011KT 24/18 A3003 RMK A01 T02360176  RH  069%=      5-min Rain = 0
KHA3 111002Z 16011KT 24/18 A3003 RMK A01 T02360176  RH  069%=      5-min Rain = 0
KHA3 111003Z 16010KT 24/18 A3004 RMK A01 T02350176  RH  069%=      5-min Rain = 0
KHA3 111004Z 16010KT 24/18 A3003 RMK A01 T02350176  RH  070%=      5-min Rain = 0
KHA3 111005Z 16010KT 24/18 A3003 RMK A01 T02350176  RH  070%=      5-min Rain = 0
KHA3 111006Z 16011KT 23/18 A3004 RMK A01 T02340176  RH  070%=      5-min Rain = 0
KHA3 111007Z 17010KT 23/18 A3004 RMK A01 T02330176  RH  070%=      5-min Rain = 0
KHA3 111008Z 16010KT 23/18 A3004 RMK A01 T02330176  RH  070%=      5-min Rain = 0
KHA3 111009Z 16011KT 23/18 A3004 RMK A01 T02320176  RH  071%=      5-min Rain = 0
KHA3 111010Z 16011KT 23/18 A3004 RMK A01 T02320176  RH  071%=      5-min Rain = 0
KHA3 111011Z 16011KT 23/18 A3004 RMK A01 T02320176  RH  070%=      5-min Rain = 0
KHA3 111012Z 16011KT 23/18 A3004 RMK A01 T02330176  RH  070%=      5-min Rain = 0
KHA3 111013Z 16012KT 23/18 A3004 RMK A01 T02330176  RH  070%=      5-min Rain = 0
KHA3 111014Z 16012KT 23/18 A3004 RMK A01 T02340176  RH  070%=      5-min Rain = 0
KHA3 111015Z 17013KT 23/18 A3004 RMK A01 T02340176  RH  070%=      5-min Rain = 0
KHA3 111016Z 16013KT 23/18 A3004 RMK A01 T02340176  RH  070%=      5-min Rain = 0
KHA3 111017Z 17012KT 24/18 A3004 RMK A01 T02350176  RH  069%=      5-min Rain = 0
KHA3 111018Z 17012KT 24/18 A3004 RMK A01 T02350176  RH  069%=      5-min Rain = 0
KHA3 111019Z 17012KT 24/18 A3004 RMK A01 T02350176  RH  069%=      5-min Rain = 0
KHA3 111020Z 17012KT 24/18 A3004 RMK A01 T02350176  RH  069%=      5-min Rain = 0
KHA3 111021Z 17010KT 24/18 A3004 RMK A01 T02350176  RH  069%=      5-min Rain = 0
KHA3 111022Z 17011KT 24/18 A3004 RMK A01 T02350176  RH  070%=      5-min Rain = 0
KHA3 111023Z 17010KT 23/18 A3004 RMK A01 T02340176  RH  070%=      5-min Rain = 0
KHA3 111024Z 17011KT 23/18 A3004 RMK A01 T02340176  RH  070%=      5-min Rain = 0
KHA3 111025Z 17010KT 23/18 A3004 RMK A01 T02340176  RH  070%=      5-min Rain = 0
KHA3 111026Z 17009KT 23/18 A3004 RMK A01 T02340176  RH  070%=      5-min Rain = 0
KHA3 111027Z 17009KT 23/18 A3004 RMK A01 T02340176  RH  070%=      5-min Rain = 0
KHA3 111028Z 17011KT 23/18 A3004 RMK A01 T02330176  RH  070%=      5-min Rain = 0
KHA3 111029Z 17010KT 23/18 A3004 RMK A01 T02330176  RH  070%=      5-min Rain = 0
KHA3 111030Z 17009KT 23/18 A3004 RMK A01 T02340176  RH  070%=      5-min Rain = 0
KHA3 111031Z 17010KT 23/18 A3004 RMK A01 T02340176  RH  070%=      5-min Rain = 0
KHA3 111032Z 17011KT 23/18 A3004 RMK A01 T02340176  RH  070%=      5-min Rain = 0
KHA3 111033Z 17011KT 23/18 A3004 RMK A01 T02340176  RH  070%=      5-min Rain = 0
KHA3 111034Z 17010KT 23/18 A3004 RMK A01 T02340176  RH  070%=      5-min Rain = 0
KHA3 111035Z 17010KT 23/18 A3004 RMK A01 T02340176  RH  070%=      5-min Rain = 0
KHA3 111036Z 17010KT 23/18 A3004 RMK A01 T02340176  RH  070%=      5-min Rain = 0
KHA3 111037Z 17010KT 23/18 A3004 RMK A01 T02340176  RH  070%=      5-min Rain = 0
KHA3 111038Z 17009KT 23/18 A3004 RMK A01 T02330176  RH  070%=      5-min Rain = 0
KHA3 111039Z 17009KT 23/18 A3004 RMK A01 T02330176  RH  070%=      5-min Rain = 0
KHA3 111040Z 17009KT 23/18 A3004 RMK A01 T02320176  RH  071%=      5-min Rain = 0
KHA3 111041Z 17010KT 23/18 A3004 RMK A01 T02320176  RH  071%=      5-min Rain = 0
KHA3 111042Z 17010KT 23/18 A3004 RMK A01 T02310176  RH  071%=      5-min Rain = 0
KHA3 111043Z 17010KT 23/18 A3004 RMK A01 T02310176  RH  071%=      5-min Rain = 0
KHA3 111044Z 17010KT 23/18 A3004 RMK A01 T02310176  RH  071%=      5-min Rain = 0
KHA3 111045Z 17011KT 23/18 A3004 RMK A01 T02320176  RH  071%=      5-min Rain = 0
KHA3 111046Z 16011KT 23/18 A3004 RMK A01 T02310176  RH  071%=      5-min Rain = 0
KHA3 111047Z 16011KT 23/18 A3004 RMK A01 T02310176  RH  071%=      5-min Rain = 0
KHA3 111048Z 17011KT 23/18 A3004 RMK A01 T02310176  RH  071%=      5-min Rain = 0
KHA3 111049Z 17011KT 23/18 A3004 RMK A01 T02320176  RH  071%=      5-min Rain = 0
KHA3 111050Z 17011KT 23/18 A3004 RMK A01 T02320176  RH  071%=      5-min Rain = 0
KHA3 111051Z 17011KT 23/18 A3004 RMK A01 T02320176  RH  071%=      5-min Rain = 0
KHA3 111052Z 17011KT 23/18 A3004 RMK A01 T02320176  RH  071%=      5-min Rain = 0
KHA3 111053Z 17012KT 23/18 A3004 RMK A01 T02320176  RH  070%=      5-min Rain = 0
KHA3 111054Z 17011KT 23/18 A3004 RMK A01 T02320176  RH  070%=      5-min Rain = 0
KHA3 111055Z 17012G17KT 23/18 A3004 RMK A01 T02320175  RH  070%=      5-min Rain = 0
KHA3 111056Z 17012KT 23/18 A3004 RMK A01 T02330176  RH  070%=      5-min Rain = 0
KHA3 111057Z 17012KT 23/18 A3004 RMK A01 T02330175  RH  070%=      5-min Rain = 0
KHA3 111058Z 18013KT 23/18 A3004 RMK A01 T02330175  RH  070%=      5-min Rain = 0
KHA3 111059Z 18013KT 23/18 A3004 RMK A01 T02330175  RH  070%=      5-min Rain = 0
KHA3 111100Z 18011KT 23/18 A3005 RMK A01 T02340175  RH  069%=      5-min Rain = 0
KHA3 111101Z 18013KT 23/18 A3005 RMK A01 T02340175  RH  069%=      5-min Rain = 0
KHA3 111102Z 18012KT 23/18 A3005 RMK A01 T02340175  RH  069%=      5-min Rain = 0
KHA3 111103Z 18012KT 23/18 A3005 RMK A01 T02340175  RH  069%=      5-min Rain = 0
KHA3 111104Z 18012KT 23/18 A3005 RMK A01 T02340175  RH  069%=      5-min Rain = 0
KHA3 111105Z 18012KT 23/18 A3005 RMK A01 T02340175  RH  069%=      5-min Rain = 0
KHA3 111106Z 18011KT 23/18 A3005 RMK A01 T02340175  RH  069%=      5-min Rain = 0
KHA3 111107Z 18011KT 23/18 A3005 RMK A01 T02340175  RH  069%=      5-min Rain = 0
KHA3 111108Z 18011KT 23/17 A3005 RMK A01 T02330174  RH  070%=      5-min Rain = 0
KHA3 111109Z 18011KT 23/18 A3005 RMK A01 T02330175  RH  070%=      5-min Rain = 0
KHA3 111110Z 18012KT 23/18 A3005 RMK A01 T02330175  RH  070%=      5-min Rain = 0
KHA3 111111Z 18012KT 23/17 A3004 RMK A01 T02320174  RH  070%=      5-min Rain = 0
KHA3 111112Z 18011KT 23/17 A3004 RMK A01 T02320174  RH  070%=      5-min Rain = 0
KHA3 111113Z 18012KT 23/17 A3004 RMK A01 T02320174  RH  070%=      5-min Rain = 0
KHA3 111114Z 18011KT 23/17 A3004 RMK A01 T02320174  RH  070%=      5-min Rain = 0
KHA3 111115Z 18011KT 23/17 A3004 RMK A01 T02320174  RH  070%=      5-min Rain = 0
KHA3 111116Z 18012KT 23/17 A3004 RMK A01 T02320174  RH  070%=      5-min Rain = 0
KHA3 111117Z 18010KT 23/17 A3005 RMK A01 T02320174  RH  070%=      5-min Rain = 0
KHA3 111118Z 18010KT 23/17 A3005 RMK A01 T02320174  RH  070%=      5-min Rain = 0
KHA3 111119Z 18010KT 23/17 A3005 RMK A01 T02320174  RH  070%=      5-min Rain = 0
KHA3 111120Z 18011KT 23/17 A3005 RMK A01 T02310174  RH  070%=      5-min Rain = 0
KHA3 111121Z 18010KT 23/17 A3005 RMK A01 T02310174  RH  070%=      5-min Rain = 0
KHA3 111122Z 18011KT 23/17 A3005 RMK A01 T02310174  RH  070%=      5-min Rain = 0
KHA3 111123Z 18011KT 23/17 A3005 RMK A01 T02300173  RH  070%=      5-min Rain = 0
KHA3 111124Z 18011KT 23/17 A3005 RMK A01 T02300173  RH  070%=      5-min Rain = 0
KHA3 111125Z 17011KT 23/17 A3004 RMK A01 T02300174  RH  070%=      5-min Rain = 0
KHA3 111126Z 18011KT 23/17 A3004 RMK A01 T02300174  RH  070%=      5-min Rain = 0
KHA3 111127Z 18011KT 23/17 A3004 RMK A01 T02300173  RH  071%=      5-min Rain = 0
KHA3 111128Z 17011KT 23/17 A3004 RMK A01 T02300174  RH  071%=      5-min Rain = 0
KHA3 111129Z 17012KT 23/17 A3004 RMK A01 T02300174  RH  071%=      5-min Rain = 0
KHA3 111130Z 17010KT 23/17 A3004 RMK A01 T02290173  RH  071%=      5-min Rain = 0
KHA3 111131Z 17012KT 23/17 A3004 RMK A01 T02290173  RH  071%=      5-min Rain = 0
KHA3 111132Z 17011KT 23/17 A3004 RMK A01 T02290173  RH  071%=      5-min Rain = 0
KHA3 111133Z 17011KT 23/17 A3004 RMK A01 T02290173  RH  071%=      5-min Rain = 0
KHA3 111134Z 17010KT 23/17 A3004 RMK A01 T02280173  RH  071%=      5-min Rain = 0
KHA3 111135Z 17010KT 23/17 A3004 RMK A01 T02280173  RH  071%=      5-min Rain = 0
KHA3 111136Z 17011KT 23/17 A3004 RMK A01 T02270173  RH  071%=      5-min Rain = 0
KHA3 111137Z 17010KT 23/17 A3004 RMK A01 T02270173  RH  071%=      5-min Rain = 0
KHA3 111138Z 17011KT 23/17 A3005 RMK A01 T02270173  RH  071%=      5-min Rain = 0
KHA3 111139Z 17010KT 23/17 A3005 RMK A01 T02270173  RH  071%=      5-min Rain = 0
KHA3 111140Z 17011KT 23/17 A3005 RMK A01 T02270173  RH  072%=      5-min Rain = 0
KHA3 111141Z 17010KT 23/17 A3005 RMK A01 T02270173  RH  072%=      5-min Rain = 0
KHA3 111142Z 17010KT 23/17 A3005 RMK A01 T02260173  RH  072%=      5-min Rain = 0
KHA3 111143Z 17010KT 23/17 A3005 RMK A01 T02260173  RH  072%=      5-min Rain = 0
KHA3 111144Z 17010KT 23/17 A3005 RMK A01 T02260173  RH  072%=      5-min Rain = 0
KHA3 111145Z 18011KT 23/17 A3005 RMK A01 T02260173  RH  072%=      5-min Rain = 0
KHA3 111146Z 17011KT 23/17 A3005 RMK A01 T02260173  RH  072%=      5-min Rain = 0
KHA3 111147Z 17010KT 23/17 A3005 RMK A01 T02260173  RH  072%=      5-min Rain = 0
KHA3 111148Z 17011KT 23/17 A3005 RMK A01 T02260173  RH  072%=      5-min Rain = 0
KHA3 111149Z 17010KT 23/17 A3005 RMK A01 T02250173  RH  072%=      5-min Rain = 0
KHA3 111150Z 18012KT 23/17 A3005 RMK A01 T02260173  RH  072%=      5-min Rain = 0
KHA3 111151Z 17011KT 23/17 A3005 RMK A01 T02260173  RH  072%=      5-min Rain = 0
KHA3 111152Z 17011KT 23/17 A3005 RMK A01 T02260173  RH  072%=      5-min Rain = 0
KHA3 111153Z 17013KT 23/17 A3005 RMK A01 T02260173  RH  072%=      5-min Rain = 0
KHA3 111154Z 17011KT 23/17 A3005 RMK A01 T02260173  RH  072%=      5-min Rain = 0
KHA3 111155Z 17010KT 23/17 A3005 RMK A01 T02260173  RH  072%=      5-min Rain = 0
KHA3 111156Z 17011KT 23/17 A3005 RMK A01 T02250173  RH  072%=      5-min Rain = 0
KHA3 111157Z 17011KT 23/17 A3005 RMK A01 T02250173  RH  072%=      5-min Rain = 0
KHA3 111158Z 17010KT 23/17 A3005 RMK A01 T02250173  RH  072%=      5-min Rain = 0
KHA3 111159Z 17012KT 22/17 A3005 RMK A01 T02240173  RH  073%=      5-min Rain = 0
KHA3 111200Z 17010KT 22/17 A3005 RMK A01 T02240173  RH  073%=      5-min Rain = 0
KHA3 111201Z 17011KT 22/17 A3005 RMK A01 T02240173  RH  073%=      5-min Rain = 0
KHA3 111202Z 18012KT 22/17 A3005 RMK A01 T02240173  RH  073%=      5-min Rain = 0
KHA3 111203Z 18011KT 23/17 A3005 RMK A01 T02250173  RH  073%=      5-min Rain = 0
KHA3 111204Z 17011KT 23/17 A3005 RMK A01 T02250173  RH  072%=      5-min Rain = 0
KHA3 111205Z 17010KT 23/17 A3005 RMK A01 T02250174  RH  073%=      5-min Rain = 0
KHA3 111206Z 18011KT 22/17 A3005 RMK A01 T02240173  RH  073%=      5-min Rain = 0
KHA3 111207Z 17010KT 23/17 A3005 RMK A01 T02250174  RH  073%=      5-min Rain = 0
KHA3 111208Z 17010KT 22/17 A3005 RMK A01 T02240173  RH  073%=      5-min Rain = 0
KHA3 111209Z 17012KT 22/17 A3005 RMK A01 T02240174  RH  073%=      5-min Rain = 0
KHA3 111210Z 17010KT 22/17 A3005 RMK A01 T02240174  RH  073%=      5-min Rain = 0
KHA3 111211Z 17010KT 22/17 A3005 RMK A01 T02240173  RH  073%=      5-min Rain = 0
KHA3 111212Z 17011KT 22/17 A3005 RMK A01 T02230173  RH  073%=      5-min Rain = 0
KHA3 111213Z 17011KT 22/17 A3005 RMK A01 T02230173  RH  073%=      5-min Rain = 0
KHA3 111214Z 17011KT 22/17 A3005 RMK A01 T02230173  RH  073%=      5-min Rain = 0
KHA3 111215Z 17011KT 22/17 A3005 RMK A01 T02230173  RH  073%=      5-min Rain = 0
KHA3 111216Z 17011KT 22/17 A3005 RMK A01 T02230173  RH  073%=      5-min Rain = 0
KHA3 111217Z 17011KT 22/17 A3005 RMK A01 T02230173  RH  073%=      5-min Rain = 0
KHA3 111218Z 17011KT 22/17 A3006 RMK A01 T02230173  RH  073%=      5-min Rain = 0
KHA3 111219Z 17011KT 22/17 A3006 RMK A01 T02220173  RH  074%=      5-min Rain = 0
KHA3 111220Z 17010KT 22/17 A3006 RMK A01 T02220173  RH  074%=      5-min Rain = 0
KHA3 111221Z 17010KT 22/17 A3006 RMK A01 T02220173  RH  074%=      5-min Rain = 0
KHA3 111222Z 17011KT 22/17 A3006 RMK A01 T02210173  RH  074%=      5-min Rain = 0
KHA3 111223Z 18010KT 22/17 A3006 RMK A01 T02210173  RH  074%=      5-min Rain = 0
KHA3 111224Z 17010KT 22/17 A3006 RMK A01 T02210173  RH  074%=      5-min Rain = 0
KHA3 111225Z 17011KT 22/17 A3006 RMK A01 T02200173  RH  074%=      5-min Rain = 0
KHA3 111226Z 17010KT 22/17 A3006 RMK A01 T02200173  RH  074%=      5-min Rain = 0
KHA3 111227Z 17010KT 22/17 A3006 RMK A01 T02210173  RH  074%=      5-min Rain = 0
KHA3 111228Z 17010KT 22/17 A3006 RMK A01 T02200173  RH  074%=      5-min Rain = 0
KHA3 111229Z 18011KT 22/17 A3006 RMK A01 T02200173  RH  075%=      5-min Rain = 0
KHA3 111230Z 18010KT 22/17 A3006 RMK A01 T02200173  RH  075%=      5-min Rain = 0
KHA3 111231Z 18010KT 22/17 A3006 RMK A01 T02200173  RH  074%=      5-min Rain = 0
KHA3 111232Z 18010KT 22/17 A3007 RMK A01 T02200173  RH  074%=      5-min Rain = 0
KHA3 111233Z 18011KT 22/17 A3007 RMK A01 T02200173  RH  074%=      5-min Rain = 0
KHA3 111234Z 18010KT 22/17 A3007 RMK A01 T02210173  RH  074%=      5-min Rain = 0
KHA3 111235Z 18010KT 22/17 A3007 RMK A01 T02210173  RH  074%=      5-min Rain = 0
KHA3 111236Z 18011KT 22/17 A3007 RMK A01 T02210173  RH  074%=      5-min Rain = 0
KHA3 111237Z 17011KT 22/17 A3007 RMK A01 T02220173  RH  074%=      5-min Rain = 0
KHA3 111238Z 18009KT 22/17 A3007 RMK A01 T02220173  RH  074%=      5-min Rain = 0
KHA3 111239Z 17010KT 22/17 A3007 RMK A01 T02220173  RH  074%=      5-min Rain = 0
KHA3 111240Z 18010KT 22/17 A3007 RMK A01 T02210173  RH  074%=      5-min Rain = 0
KHA3 111241Z 18010KT 22/17 A3007 RMK A01 T02210173  RH  074%=      5-min Rain = 0
KHA3 111242Z 17011KT 22/17 A3007 RMK A01 T02210173  RH  074%=      5-min Rain = 0
KHA3 111243Z 18009KT 22/17 A3007 RMK A01 T02220174  RH  074%=      5-min Rain = 0
KHA3 111244Z 17009KT 22/17 A3007 RMK A01 T02220174  RH  074%=      5-min Rain = 0
KHA3 111245Z 17010KT 22/17 A3007 RMK A01 T02220174  RH  074%=      5-min Rain = 0
KHA3 111246Z 17009KT 22/17 A3007 RMK A01 T02220174  RH  074%=      5-min Rain = 0
KHA3 111247Z 17010KT 22/17 A3007 RMK A01 T02210173  RH  074%=      5-min Rain = 0
KHA3 111248Z 17009KT 22/17 A3007 RMK A01 T02210174  RH  074%=      5-min Rain = 0
KHA3 111249Z 17009KT 22/17 A3007 RMK A01 T02200173  RH  075%=      5-min Rain = 0
KHA3 111250Z 17008KT 22/17 A3007 RMK A01 T02210174  RH  075%=      5-min Rain = 0
KHA3 111251Z 18008KT 22/17 A3007 RMK A01 T02200174  RH  075%=      5-min Rain = 0
KHA3 111252Z 17009KT 22/17 A3007 RMK A01 T02200174  RH  075%=      5-min Rain = 0
KHA3 111253Z 17010KT 22/17 A3007 RMK A01 T02200174  RH  075%=      5-min Rain = 0
KHA3 111254Z 17010KT 22/17 A3007 RMK A01 T02200173  RH  075%=      5-min Rain = 0
KHA3 111255Z 17011KT 22/17 A3007 RMK A01 T02200173  RH  074%=      5-min Rain = 0
KHA3 111256Z 17010KT 22/17 A3007 RMK A01 T02210173  RH  074%=      5-min Rain = 0
KHA3 111257Z 17011KT 22/17 A3007 RMK A01 T02210173  RH  074%=      5-min Rain = 0
KHA3 111258Z 17010KT 22/17 A3007 RMK A01 T02210173  RH  074%=      5-min Rain = 0
KHA3 111259Z 17010KT 22/17 A3007 RMK A01 T02210173  RH  074%=      5-min Rain = 0
KHA3 111300Z 17011KT 22/17 A3007 RMK A01 T02220174  RH  074%=      5-min Rain = 0
KHA3 111301Z 17010KT 22/17 A3007 RMK A01 T02220173  RH  074%=      5-min Rain = 0
KHA3 111302Z 17009KT 22/17 A3007 RMK A01 T02220173  RH  074%=      5-min Rain = 0
KHA3 111303Z 17009KT 22/17 A3007 RMK A01 T02230173  RH  074%=      5-min Rain = 0
KHA3 111304Z 17011KT 22/17 A3007 RMK A01 T02230174  RH  074%=      5-min Rain = 0
KHA3 111305Z 17010KT 22/17 A3007 RMK A01 T02230173  RH  073%=      5-min Rain = 0
KHA3 111306Z 17010KT 22/17 A3007 RMK A01 T02240174  RH  073%=      5-min Rain = 0
KHA3 111307Z 17011KT 22/17 A3007 RMK A01 T02240174  RH  073%=      5-min Rain = 0
KHA3 111308Z 17010KT 22/17 A3007 RMK A01 T02240174  RH  073%=      5-min Rain = 0
KHA3 111309Z 17009KT 22/17 A3007 RMK A01 T02240173  RH  073%=      5-min Rain = 0
KHA3 111310Z 17012KT 23/17 A3007 RMK A01 T02250174  RH  073%=      5-min Rain = 0
KHA3 111311Z 17011KT 23/17 A3007 RMK A01 T02250173  RH  073%=      5-min Rain = 0
KHA3 111312Z 17011KT 23/17 A3008 RMK A01 T02260174  RH  072%=      5-min Rain = 0
KHA3 111313Z 17010KT 23/17 A3008 RMK A01 T02260174  RH  072%=      5-min Rain = 0
KHA3 111314Z 17010KT 23/17 A3008 RMK A01 T02270174  RH  072%=      5-min Rain = 0
KHA3 111315Z 17011KT 23/17 A3008 RMK A01 T02270174  RH  072%=      5-min Rain = 0
KHA3 111316Z 17011KT 23/17 A3008 RMK A01 T02280174  RH  072%=      5-min Rain = 0
KHA3 111317Z 17009KT 23/18 A3008 RMK A01 T02290175  RH  072%=      5-min Rain = 0
KHA3 111318Z 17010KT 23/18 A3008 RMK A01 T02290175  RH  071%=      5-min Rain = 0
KHA3 111319Z 17010KT 23/18 A3008 RMK A01 T02300175  RH  071%=      5-min Rain = 0
KHA3 111320Z 17010KT 23/18 A3008 RMK A01 T02300175  RH  071%=      5-min Rain = 0
KHA3 111321Z 17011KT 23/18 A3008 RMK A01 T02300175  RH  071%=      5-min Rain = 0
KHA3 111322Z 17011KT 23/17 A3008 RMK A01 T02310174  RH  071%=      5-min Rain = 0
KHA3 111323Z 17012KT 23/18 A3008 RMK A01 T02310175  RH  071%=      5-min Rain = 0
KHA3 111324Z 16012KT 23/18 A3008 RMK A01 T02310175  RH  071%=      5-min Rain = 0
KHA3 111325Z 17012KT 23/17 A3008 RMK A01 T02300174  RH  071%=      5-min Rain = 0
KHA3 111326Z 17010KT 23/18 A3008 RMK A01 T02310175  RH  071%=      5-min Rain = 0
KHA3 111327Z 17013KT 23/18 A3008 RMK A01 T02320175  RH  070%=      5-min Rain = 0
KHA3 111328Z 17012KT 23/18 A3008 RMK A01 T02320175  RH  070%=      5-min Rain = 0
KHA3 111329Z 16014KT 23/18 A3008 RMK A01 T02330175  RH  070%=      5-min Rain = 0
KHA3 111330Z 16013KT 23/18 A3008 RMK A01 T02330175  RH  070%=      5-min Rain = 0
KHA3 111331Z 17014KT 23/18 A3008 RMK A01 T02330175  RH  070%=      5-min Rain = 0
KHA3 111332Z 17012KT 23/18 A3008 RMK A01 T02330175  RH  070%=      5-min Rain = 0
KHA3 111333Z 17010KT 23/18 A3008 RMK A01 T02340175  RH  070%=      5-min Rain = 0
KHA3 111334Z 16013KT 24/18 A3008 RMK A01 T02350176  RH  069%=      5-min Rain = 0
KHA3 111335Z 17011KT 24/18 A3008 RMK A01 T02350175  RH  069%=      5-min Rain = 0
KHA3 111336Z 17012KT 24/18 A3008 RMK A01 T02360176  RH  069%=      5-min Rain = 0
KHA3 111337Z 17013KT 24/18 A3008 RMK A01 T02370176  RH  069%=      5-min Rain = 0
KHA3 111338Z 17014KT 24/18 A3008 RMK A01 T02370176  RH  069%=      5-min Rain = 0
KHA3 111339Z 17014KT 24/18 A3008 RMK A01 T02370176  RH  069%=      5-min Rain = 0
KHA3 111340Z 17015KT 24/18 A3008 RMK A01 T02370176  RH  069%=      5-min Rain = 0
KHA3 111341Z 17012KT 24/18 A3008 RMK A01 T02370176  RH  069%=      5-min Rain = 0
KHA3 111342Z 17012KT 24/18 A3008 RMK A01 T02370176  RH  069%=      5-min Rain = 0
KHA3 111343Z 17012KT 24/18 A3008 RMK A01 T02380177  RH  069%=      5-min Rain = 0
KHA3 111344Z 18013KT 24/18 A3008 RMK A01 T02390177  RH  068%=      5-min Rain = 0
KHA3 111345Z 18013KT 24/18 A3008 RMK A01 T02390177  RH  068%=      5-min Rain = 0
KHA3 111346Z 18011KT 24/18 A3008 RMK A01 T02390178  RH  069%=      5-min Rain = 0
KHA3 111347Z 18012KT 24/18 A3008 RMK A01 T02400178  RH  068%=      5-min Rain = 0
KHA3 111348Z 18015KT 24/18 A3008 RMK A01 T02410178  RH  068%=      5-min Rain = 0
KHA3 111349Z 18013KT 24/18 A3008 RMK A01 T02410178  RH  068%=      5-min Rain = 0
KHA3 111350Z 18012KT 24/18 A3008 RMK A01 T02410179  RH  068%=      5-min Rain = 0
KHA3 111351Z 18012KT 24/18 A3008 RMK A01 T02420179  RH  068%=      5-min Rain = 0
KHA3 111352Z 18013KT 24/18 A3008 RMK A01 T02420178  RH  068%=      5-min Rain = 0
KHA3 111353Z 18014KT 24/18 A3008 RMK A01 T02430179  RH  067%=      5-min Rain = 0
KHA3 111354Z 18013KT 24/18 A3009 RMK A01 T02440180  RH  067%=      5-min Rain = 0
KHA3 111355Z 18013KT 25/18 A3009 RMK A01 T02450179  RH  067%=      5-min Rain = 0
KHA3 111356Z 19013KT 25/18 A3009 RMK A01 T02450180  RH  067%=      5-min Rain = 0
KHA3 111357Z 19015KT 25/18 A3009 RMK A01 T02450180  RH  067%=      5-min Rain = 0
KHA3 111358Z 19013KT 25/18 A3009 RMK A01 T02450180  RH  067%=      5-min Rain = 0
KHA3 111359Z 18012KT 25/18 A3009 RMK A01 T02450180  RH  067%=      5-min Rain = 0
KHA3 111400Z 18013KT 25/18 A3009 RMK A01 T02470180  RH  067%=      5-min Rain = 0
KHA3 111401Z 19014KT 25/18 A3009 RMK A01 T02470181  RH  066%=      5-min Rain = 0
KHA3 111402Z 19011KT 25/18 A3009 RMK A01 T02470181  RH  067%=      5-min Rain = 0
KHA3 111403Z 19015KT 25/18 A3009 RMK A01 T02480181  RH  066%=      5-min Rain = 0
KHA3 111404Z 19015KT 25/18 A3009 RMK A01 T02480181  RH  066%=      5-min Rain = 0
KHA3 111405Z 19016KT 25/18 A3009 RMK A01 T02470181  RH  066%=      5-min Rain = 0
KHA3 111406Z 18015KT 25/18 A3009 RMK A01 T02470181  RH  067%=      5-min Rain = 0
KHA3 111407Z 18015KT 25/18 A3009 RMK A01 T02470181  RH  067%=      5-min Rain = 0
KHA3 111408Z 19013KT 25/18 A3009 RMK A01 T02480181  RH  067%=      5-min Rain = 0
KHA3 111409Z 19014KT 25/18 A3009 RMK A01 T02490181  RH  066%=      5-min Rain = 0
KHA3 111410Z 19013KT 25/18 A3009 RMK A01 T02490181  RH  066%=      5-min Rain = 0
KHA3 111411Z 19013KT 25/18 A3009 RMK A01 T02490181  RH  066%=      5-min Rain = 0
KHA3 111412Z 19011KT 25/18 A3009 RMK A01 T02490181  RH  066%=      5-min Rain = 0
KHA3 111413Z 20010KT 25/18 A3009 RMK A01 T02500182  RH  066%=      5-min Rain = 0
KHA3 111414Z 19014KT 25/18 A3009 RMK A01 T02530182  RH  065%=      5-min Rain = 0
KHA3 111415Z 19016KT 25/18 A3009 RMK A01 T02530182  RH  065%=      5-min Rain = 0
KHA3 111416Z 19017KT 25/18 A3009 RMK A01 T02520182  RH  065%=      5-min Rain = 0
KHA3 111417Z 19013KT 25/18 A3009 RMK A01 T02520183  RH  066%=      5-min Rain = 0
KHA3 111418Z 19015KT 25/18 A3009 RMK A01 T02530183  RH  065%=      5-min Rain = 0
KHA3 111419Z 18015KT 25/18 A3009 RMK A01 T02530183  RH  065%=      5-min Rain = 0
KHA3 111420Z 19013KT 25/18 A3009 RMK A01 T02530183  RH  065%=      5-min Rain = 0
KHA3 111421Z 19012KT 25/18 A3009 RMK A01 T02540183  RH  065%=      5-min Rain = 0
KHA3 111422Z 19012KT 26/18 A3009 RMK A01 T02550184  RH  065%=      5-min Rain = 0
KHA3 111423Z 19012G17KT 26/19 A3009 RMK A01 T02570185  RH  064%=      5-min Rain = 0
KHA3 111424Z 19015KT 26/18 A3009 RMK A01 T02590184  RH  063%=      5-min Rain = 0
KHA3 111425Z 19011KT 26/18 A3009 RMK A01 T02570184  RH  064%=      5-min Rain = 0
KHA3 111426Z 20012KT 26/19 A3009 RMK A01 T02580185  RH  064%=      5-min Rain = 0
KHA3 111427Z 19015KT 26/19 A3009 RMK A01 T02600185  RH  063%=      5-min Rain = 0
KHA3 111428Z 19012KT 26/19 A3009 RMK A01 T02590185  RH  063%=      5-min Rain = 0
KHA3 111429Z 20014G19KT 26/19 A3009 RMK A01 T02590185  RH  064%=      5-min Rain = 0
KHA3 111430Z 20019G24KT 26/19 A3009 RMK A01 T02610186  RH  063%=      5-min Rain = 0
KHA3 111431Z 20018KT 26/19 A3009 RMK A01 T02600186  RH  064%=      5-min Rain = 0
KHA3 111432Z 20018KT 26/19 A3009 RMK A01 T02590185  RH  064%=      5-min Rain = 0
KHA3 111433Z 21016KT 26/19 A3009 RMK A01 T02580186  RH  064%=      5-min Rain = 0
KHA3 111434Z 20017KT 26/19 A3009 RMK A01 T02580185  RH  064%=      5-min Rain = 0
KHA3 111435Z 20015KT 26/19 A3009 RMK A01 T02580186  RH  064%=      5-min Rain = 0
KHA3 111436Z 21013G18KT 26/19 A3009 RMK A01 T02580186  RH  065%=      5-min Rain = 0
KHA3 111437Z 21014G19KT 26/19 A3009 RMK A01 T02600187  RH  064%=      5-min Rain = 0
KHA3 111438Z 20014KT 26/19 A3009 RMK A01 T02630187  RH  063%=      5-min Rain = 0
KHA3 111439Z 20014KT 26/19 A3009 RMK A01 T02640187  RH  063%=      5-min Rain = 0
KHA3 111440Z 20011KT 27/19 A3009 RMK A01 T02650187  RH  062%=      5-min Rain = 0
KHA3 111441Z 21015KT 27/19 A3009 RMK A01 T02660187  RH  062%=      5-min Rain = 0
KHA3 111442Z 19017KT 27/19 A3009 RMK A01 T02650187  RH  062%=      5-min Rain = 0
KHA3 111443Z 21017G22KT 26/19 A3009 RMK A01 T02640187  RH  062%=      5-min Rain = 0
KHA3 111444Z 20019KT 26/19 A3009 RMK A01 T02640187  RH  063%=      5-min Rain = 0
KHA3 111445Z 21017KT 26/19 A3009 RMK A01 T02630187  RH  063%=      5-min Rain = 0
KHA3 111446Z 20017KT 26/19 A3009 RMK A01 T02630187  RH  063%=      5-min Rain = 0
KHA3 111447Z 21020KT 26/19 A3009 RMK A01 T02630188  RH  063%=      5-min Rain = 0
KHA3 111448Z 21018KT 26/19 A3009 RMK A01 T02640187  RH  063%=      5-min Rain = 0
KHA3 111449Z 21016KT 26/19 A3009 RMK A01 T02630188  RH  063%=      5-min Rain = 0
KHA3 111450Z 21019KT 26/19 A3009 RMK A01 T02630188  RH  063%=      5-min Rain = 0
KHA3 111451Z 22018KT 26/19 A3009 RMK A01 T02630188  RH  063%=      5-min Rain = 0
KHA3 111452Z 22018KT 26/19 A3009 RMK A01 T02630188  RH  063%=      5-min Rain = 0
KHA3 111453Z 21019G24KT 26/19 A3009 RMK A01 T02620187  RH  063%=      5-min Rain = 0
KHA3 111454Z 21016G21KT 26/19 A3009 RMK A01 T02620188  RH  064%=      5-min Rain = 0
KHA3 111455Z 21020KT 26/19 A3009 RMK A01 T02630188  RH  063%=      5-min Rain = 0
KHA3 111456Z 20018KT 26/19 A3009 RMK A01 T02640188  RH  063%=      5-min Rain = 0
KHA3 111457Z 20015KT 27/19 A3009 RMK A01 T02650188  RH  063%=      5-min Rain = 0
KHA3 111458Z 19016KT 27/19 A3009 RMK A01 T02660189  RH  062%=      5-min Rain = 0
KHA3 111459Z 20019G25KT 27/19 A3009 RMK A01 T02660188  RH  062%=      5-min Rain = 0
KHA3 111500Z 20018KT 27/19 A3009 RMK A01 T02660189  RH  062%=      5-min Rain = 0
KHA3 111501Z 20016KT 27/19 A3009 RMK A01 T02660189  RH  062%=      5-min Rain = 0
KHA3 111502Z 20016KT 27/19 A3009 RMK A01 T02660189  RH  062%=      5-min Rain = 0
KHA3 111503Z 20017KT 27/19 A301 RMK A01 T02660189  RH  063%=      5-min Rain = 0
KHA3 111504Z 20015G20KT 27/19 A301 RMK A01 T02660189  RH  063%=      5-min Rain = 0
KHA3 111505Z 19019KT 27/19 A301 RMK A01 T02690189  RH  062%=      5-min Rain = 0
KHA3 111506Z 20017KT 27/19 A301 RMK A01 T02700189  RH  061%=      5-min Rain = 0
KHA3 111507Z 20017KT 27/19 A301 RMK A01 T02690189  RH  062%=      5-min Rain = 0
KHA3 111508Z 20016KT 27/19 A301 RMK A01 T02680189  RH  062%=      5-min Rain = 0
KHA3 111509Z 21013KT 27/19 A301 RMK A01 T02680189  RH  062%=      5-min Rain = 0
KHA3 111510Z 21012KT 27/19 A301 RMK A01 T02700189  RH  061%=      5-min Rain = 0
KHA3 111511Z 20015KT 27/19 A301 RMK A01 T02720190  RH  061%=      5-min Rain = 0
KHA3 111512Z 21015KT 27/19 A301 RMK A01 T02730190  RH  060%=      5-min Rain = 0
KHA3 111513Z 20011G16KT 27/19 A301 RMK A01 T02730190  RH  060%=      5-min Rain = 0
KHA3 111514Z 19016KT 28/19 A301 RMK A01 T02750191  RH  060%=      5-min Rain = 0
KHA3 111515Z 20018KT 28/19 A301 RMK A01 T02760190  RH  060%=      5-min Rain = 0
KHA3 111516Z 20017KT 28/19 A301 RMK A01 T02750190  RH  060%=      5-min Rain = 0
KHA3 111517Z 19017G22KT 27/19 A3009 RMK A01 T02740191  RH  060%=      5-min Rain = 0
KHA3 111518Z 19020KT 27/19 A3009 RMK A01 T02740190  RH  060%=      5-min Rain = 0
KHA3 111519Z 19018G23KT 28/19 A3009 RMK A01 T02750191  RH  060%=      5-min Rain = 0
KHA3 111520Z 19020KT 27/19 A3009 RMK A01 T02740190  RH  060%=      5-min Rain = 0
KHA3 111521Z 19018KT 27/19 A3009 RMK A01 T02740191  RH  061%=      5-min Rain = 0
KHA3 111522Z 19017KT 27/19 A3009 RMK A01 T02730191  RH  061%=      5-min Rain = 0
KHA3 111523Z 18016G22KT 27/19 A3009 RMK A01 T02740191  RH  060%=      5-min Rain = 0
KHA3 111524Z 20016KT 28/19 A3009 RMK A01 T02770192  RH  060%=      5-min Rain = 0
KHA3 111525Z 20015KT 28/19 A3009 RMK A01 T02790192  RH  059%=      5-min Rain = 0
KHA3 111526Z 19014KT 28/19 A3009 RMK A01 T02810192  RH  059%=      5-min Rain = 0
KHA3 111527Z 19017KT 28/19 A3009 RMK A01 T02830192  RH  058%=      5-min Rain = 0
KHA3 111528Z 20015KT 28/19 A3009 RMK A01 T02840192  RH  057%=      5-min Rain = 0
KHA3 111529Z 20012KT 28/19 A3009 RMK A01 T02830192  RH  058%=      5-min Rain = 0
KHA3 111530Z 20014KT 28/19 A3009 RMK A01 T02840192  RH  057%=      5-min Rain = 0
KHA3 111531Z 20011KT 28/19 A301 RMK A01 T02840193  RH  058%=      5-min Rain = 0
KHA3 111532Z 20014KT 29/19 A3009 RMK A01 T02850193  RH  057%=      5-min Rain = 0
KHA3 111533Z 19016G21KT 29/19 A3009 RMK A01 T02870192  RH  057%=      5-min Rain = 0
KHA3 111534Z 18019KT 29/19 A3009 RMK A01 T02860192  RH  057%=      5-min Rain = 0
KHA3 111535Z 19013KT 28/19 A3009 RMK A01 T02820191  RH  058%=      5-min Rain = 0
KHA3 111536Z 19014KT 28/19 A3009 RMK A01 T02800192  RH  059%=      5-min Rain = 0
KHA3 111537Z 19017KT 28/19 A3009 RMK A01 T02830192  RH  058%=      5-min Rain = 0
KHA3 111538Z 19017KT 28/19 A3009 RMK A01 T02820191  RH  058%=      5-min Rain = 0
KHA3 111539Z 19014KT 28/19 A3009 RMK A01 T02790191  RH  059%=      5-min Rain = 0
KHA3 111540Z 19017KT 28/19 A3009 RMK A01 T02800192  RH  059%=      5-min Rain = 0
KHA3 111541Z 19017KT 28/19 A3009 RMK A01 T02820192  RH  058%=      5-min Rain = 0
KHA3 111542Z 21019KT 28/19 A3009 RMK A01 T02810192  RH  059%=      5-min Rain = 0
KHA3 111543Z 19017KT 28/19 A3009 RMK A01 T02820192  RH  058%=      5-min Rain = 0
KHA3 111544Z 19013KT 28/19 A3009 RMK A01 T02820192  RH  058%=      5-min Rain = 0
KHA3 111545Z 19015KT 28/19 A3009 RMK A01 T02840193  RH  058%=      5-min Rain = 0
KHA3 111546Z 20020KT 29/19 A3009 RMK A01 T02860193  RH  057%=      5-min Rain = 0
KHA3 111547Z 19019G24KT 28/19 A3009 RMK A01 T02830192  RH  058%=      5-min Rain = 0
KHA3 111548Z 20018G23KT 28/19 A3009 RMK A01 T02800192  RH  059%=      5-min Rain = 0
KHA3 111549Z 19019G25KT 28/19 A3009 RMK A01 T02810192  RH  058%=      5-min Rain = 0
KHA3 111550Z 20020KT 29/19 A3009 RMK A01 T02850193  RH  057%=      5-min Rain = 0
KHA3 111551Z 19018KT 29/19 A3009 RMK A01 T02860193  RH  057%=      5-min Rain = 0
KHA3 111552Z 19016G21KT 29/19 A3009 RMK A01 T02880193  RH  056%=      5-min Rain = 0
KHA3 111553Z 20018G23KT 29/19 A3009 RMK A01 T02870192  RH  056%=      5-min Rain = 0
KHA3 111554Z 20016KT 29/19 A3009 RMK A01 T02880192  RH  056%=      5-min Rain = 0
KHA3 111555Z 21018KT 29/19 A3009 RMK A01 T02900193  RH  056%=      5-min Rain = 0
KHA3 111556Z 20021KT 29/19 A3009 RMK A01 T02900193  RH  056%=      5-min Rain = 0
KHA3 111557Z 20019KT 29/19 A3009 RMK A01 T02880192  RH  056%=      5-min Rain = 0
KHA3 111558Z 20016KT 29/19 A3009 RMK A01 T02880192  RH  056%=      5-min Rain = 0
KHA3 111559Z 21016G21KT 29/19 A3009 RMK A01 T02850192  RH  057%=      5-min Rain = 0
KHA3 111600Z 20016KT 29/19 A3009 RMK A01 T02860193  RH  057%=      5-min Rain = 0
KHA3 111601Z 21017KT 29/19 A3009 RMK A01 T02870193  RH  057%=      5-min Rain = 0
KHA3 111602Z 20015KT 29/19 A3009 RMK A01 T02880193  RH  056%=      5-min Rain = 0
KHA3 111603Z 19017KT 29/19 A3009 RMK A01 T02880193  RH  056%=      5-min Rain = 0
KHA3 111604Z 20019KT 29/19 A3009 RMK A01 T02910192  RH  055%=      5-min Rain = 0
KHA3 111605Z 20014KT 29/19 A3009 RMK A01 T02920194  RH  055%=      5-min Rain = 0
KHA3 111606Z 21012KT 29/19 A3009 RMK A01 T02940194  RH  055%=      5-min Rain = 0
KHA3 111607Z 22013KT 30/20 A3009 RMK A01 T02960195  RH  054%=      5-min Rain = 0
KHA3 111608Z 22015KT 30/19 A3009 RMK A01 T02970194  RH  054%=      5-min Rain = 0
KHA3 111609Z 21015KT 30/20 A3009 RMK A01 T02960195  RH  055%=      5-min Rain = 0
KHA3 111610Z 20015G20KT 30/19 A3009 RMK A01 T02960194  RH  054%=      5-min Rain = 0
KHA3 111611Z 20017KT 30/19 A3009 RMK A01 T02960194  RH  054%=      5-min Rain = 0
KHA3 111612Z 21015KT 30/19 A3009 RMK A01 T02950193  RH  054%=      5-min Rain = 0
KHA3 111613Z 19014KT 30/19 A3009 RMK A01 T02950194  RH  054%=      5-min Rain = 0
KHA3 111614Z 20018KT 30/19 A3009 RMK A01 T02970194  RH  054%=      5-min Rain = 0
KHA3 111615Z 19017KT 30/19 A3009 RMK A01 T02960193  RH  054%=      5-min Rain = 0
KHA3 111616Z 20018KT 29/19 A3009 RMK A01 T02920193  RH  055%=      5-min Rain = 0
KHA3 111617Z 21016KT 29/19 A3009 RMK A01 T02870192  RH  056%=      5-min Rain = 0
KHA3 111618Z 21013KT 29/19 A3009 RMK A01 T02860193  RH  057%=      5-min Rain = 0
KHA3 111619Z 21017KT 29/19 A3009 RMK A01 T02860192  RH  057%=      5-min Rain = 0
KHA3 111620Z 20012G17KT 29/19 A3009 RMK A01 T02880193  RH  057%=      5-min Rain = 0
KHA3 111621Z 20012KT 29/19 A3009 RMK A01 T02920194  RH  055%=      5-min Rain = 0
KHA3 111622Z 20013KT 29/19 A3009 RMK A01 T02940194  RH  055%=      5-min Rain = 0
KHA3 111623Z 19013G18KT 30/19 A3009 RMK A01 T02970194  RH  054%=      5-min Rain = 0
KHA3 111624Z 18016KT 30/19 A3009 RMK A01 T02990194  RH  053%=      5-min Rain = 0
KHA3 111625Z 19014KT 30/19 A3009 RMK A01 T02980194  RH  054%=      5-min Rain = 0
KHA3 111626Z 21016KT 30/19 A3009 RMK A01 T02960194  RH  054%=      5-min Rain = 0
KHA3 111627Z 21014KT 29/19 A3009 RMK A01 T02920193  RH  055%=      5-min Rain = 0
KHA3 111628Z 19013G18KT 29/19 A3009 RMK A01 T02910194  RH  056%=      5-min Rain = 0
KHA3 111629Z 19015KT 29/19 A3009 RMK A01 T02940194  RH  055%=      5-min Rain = 0
KHA3 111630Z 19019KT 30/19 A3009 RMK A01 T02960193  RH  054%=      5-min Rain = 0
KHA3 111631Z 20014G19KT 30/19 A3009 RMK A01 T02950194  RH  054%=      5-min Rain = 0
KHA3 111632Z 21014KT 30/19 A3009 RMK A01 T02950194  RH  055%=      5-min Rain = 0
KHA3 111633Z 20019KT 29/19 A3009 RMK A01 T02940194  RH  055%=      5-min Rain = 0
KHA3 111634Z 20017KT 29/19 A3009 RMK A01 T02920194  RH  056%=      5-min Rain = 0
KHA3 111635Z 19015KT 29/19 A3009 RMK A01 T02890193  RH  056%=      5-min Rain = 0
KHA3 111636Z 20012KT 29/19 A3009 RMK A01 T02880194  RH  057%=      5-min Rain = 0
KHA3 111637Z 19014G19KT 29/19 A3009 RMK A01 T02880194  RH  057%=      5-min Rain = 0
KHA3 111638Z 18016KT 29/19 A3009 RMK A01 T02890194  RH  056%=      5-min Rain = 0
KHA3 111639Z 20012G17KT 29/19 A3009 RMK A01 T02890194  RH  056%=      5-min Rain = 0
KHA3 111640Z 21012KT 29/19 A3009 RMK A01 T02910194  RH  056%=      5-min Rain = 0
KHA3 111641Z 22013KT 29/19 A3009 RMK A01 T02910194  RH  056%=      5-min Rain = 0
KHA3 111642Z 21013KT 29/19 A3009 RMK A01 T02890194  RH  056%=      5-min Rain = 0
KHA3 111643Z 22015KT 29/19 A3009 RMK A01 T02890194  RH  056%=      5-min Rain = 0
KHA3 111644Z 20015KT 29/19 A3009 RMK A01 T02890194  RH  056%=      5-min Rain = 0
KHA3 111645Z 19016KT 29/19 A3009 RMK A01 T02900194  RH  056%=      5-min Rain = 0
KHA3 111646Z 20014KT 29/20 A3009 RMK A01 T02900195  RH  056%=      5-min Rain = 0
KHA3 111647Z 19015KT 29/19 A3009 RMK A01 T02890194  RH  057%=      5-min Rain = 0
KHA3 111648Z 19015KT 29/19 A3009 RMK A01 T02890194  RH  057%=      5-min Rain = 0
KHA3 111649Z 19014KT 29/19 A3009 RMK A01 T02890194  RH  056%=      5-min Rain = 0
KHA3 111650Z 20013KT 29/19 A3009 RMK A01 T02900194  RH  056%=      5-min Rain = 0
KHA3 111651Z 18014KT 29/20 A3009 RMK A01 T02910195  RH  056%=      5-min Rain = 0
KHA3 111652Z 19012KT 29/20 A3009 RMK A01 T02930195  RH  056%=      5-min Rain = 0
KHA3 111653Z 20010KT 29/20 A3009 RMK A01 T02940196  RH  056%=      5-min Rain = 0
KHA3 111654Z 21013KT 30/20 A3009 RMK A01 T02960196  RH  055%=      5-min Rain = 0
KHA3 111655Z 20014KT 30/20 A3009 RMK A01 T02960195  RH  055%=      5-min Rain = 0
KHA3 111656Z 20015KT 29/20 A3009 RMK A01 T02940195  RH  055%=      5-min Rain = 0
KHA3 111657Z 19014KT 29/20 A3009 RMK A01 T02920195  RH  056%=      5-min Rain = 0
KHA3 111658Z 19015KT 29/20 A3009 RMK A01 T02910195  RH  056%=      5-min Rain = 0
KHA3 111659Z 19014KT 29/20 A3009 RMK A01 T02900195  RH  057%=      5-min Rain = 0
KHA3 111700Z 19013KT 29/20 A3009 RMK A01 T02890195  RH  057%=      5-min Rain = 0
KHA3 111701Z 19013KT 29/20 A3009 RMK A01 T02900195  RH  057%=      5-min Rain = 0
KHA3 111702Z 19014KT 29/20 A3009 RMK A01 T02920196  RH  056%=      5-min Rain = 0
KHA3 111703Z 19015KT 29/20 A3009 RMK A01 T02930196  RH  056%=      5-min Rain = 0
KHA3 111704Z 19014KT 29/20 A3009 RMK A01 T02930196  RH  056%=      5-min Rain = 0
KHA3 111705Z 19013KT 29/20 A3009 RMK A01 T02930196  RH  056%=      5-min Rain = 0
KHA3 111706Z 18011KT 30/20 A3009 RMK A01 T02950196  RH  055%=      5-min Rain = 0
KHA3 111707Z 18010KT 29/20 A3008 RMK A01 T02930196  RH  056%=      5-min Rain = 0
KHA3 111708Z 19012G17KT 29/20 A3008 RMK A01 T02910195  RH  056%=      5-min Rain = 0
KHA3 111709Z 20014G19KT 29/20 A3008 RMK A01 T02910195  RH  056%=      5-min Rain = 0
KHA3 111710Z 17014KT 29/20 A3008 RMK A01 T02940196  RH  056%=      5-min Rain = 0
KHA3 111711Z 19014KT 30/20 A3008 RMK A01 T02960196  RH  055%=      5-min Rain = 0
KHA3 111712Z 20015KT 30/20 A3008 RMK A01 T02970196  RH  055%=      5-min Rain = 0
KHA3 111713Z 20013KT 30/20 A3008 RMK A01 T02970196  RH  055%=      5-min Rain = 0
KHA3 111714Z 18012KT 30/20 A3008 RMK A01 T02970196  RH  054%=      5-min Rain = 0
KHA3 111715Z 16014KT 30/20 A3008 RMK A01 T03000196  RH  054%=      5-min Rain = 0
KHA3 111716Z 17015KT 30/20 A3008 RMK A01 T03010196  RH  053%=      5-min Rain = 0
KHA3 111717Z 17015KT 30/20 A3008 RMK A01 T03030197  RH  053%=      5-min Rain = 0
KHA3 111718Z 18014KT 31/20 A3008 RMK A01 T03050197  RH  052%=      5-min Rain = 0
KHA3 111719Z 18016KT 31/20 A3008 RMK A01 T03070197  RH  052%=      5-min Rain = 0
KHA3 111720Z 19016KT 31/20 A3008 RMK A01 T03050196  RH  052%=      5-min Rain = 0
KHA3 111721Z 18016KT 30/20 A3008 RMK A01 T03000195  RH  053%=      5-min Rain = 0
KHA3 111722Z 20015KT 30/20 A3008 RMK A01 T02970195  RH  054%=      5-min Rain = 0
KHA3 111723Z 20015KT 30/20 A3008 RMK A01 T02970195  RH  054%=      5-min Rain = 0
KHA3 111724Z 19013KT 30/20 A3008 RMK A01 T02970196  RH  054%=      5-min Rain = 0
KHA3 111725Z 19011KT 30/20 A3008 RMK A01 T02990196  RH  054%=      5-min Rain = 0
KHA3 111726Z 20014G19KT 30/20 A3008 RMK A01 T03040196  RH  053%=      5-min Rain = 0
KHA3 111727Z 19014KT 31/20 A3008 RMK A01 T03080197  RH  052%=      5-min Rain = 0
KHA3 111728Z 19014KT 31/20 A3007 RMK A01 T03080197  RH  052%=      5-min Rain = 0
KHA3 111729Z 20016G21KT 31/20 A3007 RMK A01 T03060197  RH  052%=      5-min Rain = 0
KHA3 111730Z 19016KT 31/20 A3007 RMK A01 T03050196  RH  052%=      5-min Rain = 0
KHA3 111731Z 19014KT 30/20 A3007 RMK A01 T03010195  RH  053%=      5-min Rain = 0
KHA3 111732Z 20014KT 30/20 A3007 RMK A01 T03010196  RH  053%=      5-min Rain = 0
KHA3 111733Z 21019KT 30/20 A3007 RMK A01 T03040196  RH  052%=      5-min Rain = 0
KHA3 111734Z 20018KT 30/20 A3007 RMK A01 T03030195  RH  052%=      5-min Rain = 0
KHA3 111735Z 22016KT 30/20 A3007 RMK A01 T03020195  RH  053%=      5-min Rain = 0
KHA3 111736Z 21015KT 30/20 A3007 RMK A01 T03040195  RH  052%=      5-min Rain = 0
KHA3 111737Z 22018G23KT 31/20 A3007 RMK A01 T03100196  RH  051%=      5-min Rain = 0
KHA3 111738Z 20018KT 31/20 A3007 RMK A01 T03120196  RH  050%=      5-min Rain = 0
KHA3 111739Z 21017KT 32/20 A3007 RMK A01 T03150197  RH  050%=      5-min Rain = 0
KHA3 111740Z 21019KT 32/20 A3007 RMK A01 T03170197  RH  049%=      5-min Rain = 0
KHA3 111741Z 20016KT 32/20 A3007 RMK A01 T03150196  RH  049%=      5-min Rain = 0
KHA3 111742Z 20015KT 31/20 A3007 RMK A01 T03140196  RH  049%=      5-min Rain = 0
KHA3 111743Z 21018KT 31/20 A3007 RMK A01 T03130195  RH  050%=      5-min Rain = 0
KHA3 111744Z 20018KT 31/20 A3007 RMK A01 T03090195  RH  051%=      5-min Rain = 0
KHA3 111745Z 20019KT 31/20 A3007 RMK A01 T03060196  RH  052%=      5-min Rain = 0
KHA3 111746Z 20014KT 31/20 A3007 RMK A01 T03070197  RH  052%=      5-min Rain = 0
KHA3 111747Z 21013KT 31/20 A3007 RMK A01 T03140198  RH  050%=      5-min Rain = 0
KHA3 111748Z 20014G19KT 32/20 A3007 RMK A01 T03180196  RH  048%=      5-min Rain = 0
KHA3 111749Z 19016KT 32/20 A3007 RMK A01 T03160195  RH  049%=      5-min Rain = 0
KHA3 111750Z 19016KT 31/20 A3007 RMK A01 T03140195  RH  049%=      5-min Rain = 0
KHA3 111751Z 20016G23KT 31/20 A3006 RMK A01 T03130196  RH  050%=      5-min Rain = 0
KHA3 111752Z 21015G20KT 31/20 A3007 RMK A01 T03110197  RH  051%=      5-min Rain = 0
KHA3 111753Z 18017G22KT 31/20 A3007 RMK A01 T03090196  RH  051%=      5-min Rain = 0
KHA3 111754Z 18014KT 31/20 A3007 RMK A01 T03090196  RH  051%=      5-min Rain = 0
KHA3 111755Z 20015KT 31/20 A3007 RMK A01 T03130197  RH  050%=      5-min Rain = 0
KHA3 111756Z 18015KT 32/20 A3006 RMK A01 T03150197  RH  050%=      5-min Rain = 0
KHA3 111757Z 18015KT 31/20 A3007 RMK A01 T03130196  RH  050%=      5-min Rain = 0
KHA3 111758Z 20014G22KT 31/20 A3007 RMK A01 T03110197  RH  051%=      5-min Rain = 0
KHA3 111759Z 20018G23KT 31/20 A3006 RMK A01 T03130195  RH  050%=      5-min Rain = 0
KHA3 111800Z 20016KT 31/19 A3006 RMK A01 T03140194  RH  049%=      5-min Rain = 0
KHA3 111801Z 20018KT 32/19 A3006 RMK A01 T03160194  RH  048%=      5-min Rain = 0
KHA3 111802Z 19017KT 32/19 A3006 RMK A01 T03150192  RH  048%=      5-min Rain = 0
KHA3 111803Z 18016KT 31/19 A3006 RMK A01 T03080193  RH  050%=      5-min Rain = 0
KHA3 111804Z 18015KT 31/19 A3006 RMK A01 T03050194  RH  051%=      5-min Rain = 0
KHA3 111805Z 19016KT 31/20 A3006 RMK A01 T03080196  RH  051%=      5-min Rain = 0
KHA3 111806Z 19013KT 31/20 A3006 RMK A01 T03110196  RH  051%=      5-min Rain = 0
KHA3 111807Z 20014KT 31/20 A3006 RMK A01 T03100197  RH  051%=      5-min Rain = 0
KHA3 111808Z 19016KT 31/20 A3006 RMK A01 T03130197  RH  050%=      5-min Rain = 0
KHA3 111809Z 17018KT 32/20 A3006 RMK A01 T03180196  RH  048%=      5-min Rain = 0
KHA3 111810Z 17018KT 32/20 A3006 RMK A01 T03180195  RH  048%=      5-min Rain = 0
KHA3 111811Z 17015KT 32/20 A3006 RMK A01 T03180195  RH  048%=      5-min Rain = 0
KHA3 111812Z 19014KT 32/20 A3006 RMK A01 T03160195  RH  049%=      5-min Rain = 0
KHA3 111813Z 19019KT 32/20 A3005 RMK A01 T03160196  RH  049%=      5-min Rain = 0
KHA3 111814Z 19018KT 32/19 A3006 RMK A01 T03190194  RH  048%=      5-min Rain = 0
KHA3 111815Z 18014KT 31/19 A3006 RMK A01 T03130193  RH  049%=      5-min Rain = 0
KHA3 111816Z 20016KT 31/19 A3006 RMK A01 T03090192  RH  050%=      5-min Rain = 0
KHA3 111817Z 20014KT 31/19 A3006 RMK A01 T03090193  RH  050%=      5-min Rain = 0
KHA3 111818Z 18015G20KT 31/19 A3005 RMK A01 T03130194  RH  049%=      5-min Rain = 0
KHA3 111819Z 18019KT 32/19 A3005 RMK A01 T03180194  RH  048%=      5-min Rain = 0
KHA3 111820Z 19019KT 32/19 A3005 RMK A01 T03170193  RH  048%=      5-min Rain = 0
KHA3 111821Z 18017KT 32/19 A3005 RMK A01 T03170194  RH  048%=      5-min Rain = 0
KHA3 111822Z 19018KT 32/20 A3005 RMK A01 T03220196  RH  047%=      5-min Rain = 0
KHA3 111823Z 19019KT 32/19 A3005 RMK A01 T03230193  RH  046%=      5-min Rain = 0
KHA3 111824Z 18017KT 32/19 A3005 RMK A01 T03190192  RH  047%=      5-min Rain = 0
KHA3 111825Z 18017KT 32/19 A3005 RMK A01 T03150192  RH  048%=      5-min Rain = 0
KHA3 111826Z 19017KT 31/19 A3005 RMK A01 T03090193  RH  050%=      5-min Rain = 0
KHA3 111827Z 19017KT 31/19 A3005 RMK A01 T03070191  RH  050%=      5-min Rain = 0
KHA3 111828Z 19019KT 31/19 A3005 RMK A01 T03060191  RH  051%=      5-min Rain = 0
KHA3 111829Z 18017G24KT 31/19 A3005 RMK A01 T03070191  RH  050%=      5-min Rain = 0
KHA3 111830Z 18018KT 31/19 A3005 RMK A01 T03090192  RH  050%=      5-min Rain = 0
KHA3 111831Z 19018G23KT 31/19 A3005 RMK A01 T03080192  RH  050%=      5-min Rain = 0
KHA3 111832Z 20018G23KT 31/19 A3005 RMK A01 T03070192  RH  050%=      5-min Rain = 0
KHA3 111833Z 20015G20KT 31/19 A3005 RMK A01 T03080191  RH  050%=      5-min Rain = 0
KHA3 111834Z 20017KT 31/19 A3005 RMK A01 T03130193  RH  049%=      5-min Rain = 0
KHA3 111835Z 19018KT 32/19 A3005 RMK A01 T03200194  RH  047%=      5-min Rain = 0
KHA3 111836Z 21018KT 32/19 A3005 RMK A01 T03210192  RH  046%=      5-min Rain = 0
KHA3 111837Z 19015KT 32/19 A3005 RMK A01 T03210193  RH  047%=      5-min Rain = 0
KHA3 111838Z 18016KT 32/19 A3005 RMK A01 T03230194  RH  047%=      5-min Rain = 0
KHA3 111839Z 18017KT 32/19 A3004 RMK A01 T03240191  RH  045%=      5-min Rain = 0
KHA3 111840Z 19017KT 33/19 A3004 RMK A01 T03260191  RH  045%=      5-min Rain = 0
KHA3 111841Z 19019KT 33/19 A3004 RMK A01 T03260191  RH  045%=      5-min Rain = 0
KHA3 111842Z 19016KT 32/19 A3004 RMK A01 T03220190  RH  046%=      5-min Rain = 0
KHA3 111843Z 18018KT 32/19 A3004 RMK A01 T03200192  RH  047%=      5-min Rain = 0
KHA3 111844Z 20019KT 32/19 A3004 RMK A01 T03200192  RH  047%=      5-min Rain = 0
KHA3 111845Z 20017KT 32/19 A3004 RMK A01 T03210192  RH  047%=      5-min Rain = 0
KHA3 111846Z 20014KT 32/19 A3004 RMK A01 T03240194  RH  046%=      5-min Rain = 0
KHA3 111847Z 17014G19KT 33/19 A3004 RMK A01 T03270193  RH  045%=      5-min Rain = 0
KHA3 111848Z 19016KT 32/19 A3004 RMK A01 T03220192  RH  046%=      5-min Rain = 0
KHA3 111849Z 20018KT 32/19 A3003 RMK A01 T03190192  RH  047%=      5-min Rain = 0
KHA3 111850Z 18017KT 32/19 A3004 RMK A01 T03190191  RH  047%=      5-min Rain = 0
KHA3 111851Z 18018KT 32/19 A3004 RMK A01 T03160190  RH  047%=      5-min Rain = 0
KHA3 111852Z 18017KT 31/19 A3003 RMK A01 T03130190  RH  048%=      5-min Rain = 0
KHA3 111853Z 19019KT 32/19 A3003 RMK A01 T03170191  RH  047%=      5-min Rain = 0
KHA3 111854Z 18014G19KT 32/19 A3003 RMK A01 T03210190  RH  046%=      5-min Rain = 0
KHA3 111855Z 17016KT 32/19 A3003 RMK A01 T03240191  RH  045%=      5-min Rain = 0
KHA3 111856Z 17016KT 33/19 A3003 RMK A01 T03290193  RH  045%=      5-min Rain = 0
KHA3 111857Z 18021KT 33/19 A3003 RMK A01 T03310192  RH  044%=      5-min Rain = 0
KHA3 111858Z 18017KT 33/19 A3003 RMK A01 T03260191  RH  045%=      5-min Rain = 0
KHA3 111859Z 19015KT 33/19 A3003 RMK A01 T03250190  RH  045%=      5-min Rain = 0
KHA3 111900Z 18017KT 33/19 A3003 RMK A01 T03260190  RH  045%=      5-min Rain = 0
KHA3 111901Z 18017KT 33/19 A3003 RMK A01 T03290190  RH  044%=      5-min Rain = 0
KHA3 111902Z 18015KT 33/19 A3003 RMK A01 T03260190  RH  045%=      5-min Rain = 0
KHA3 111903Z 18015KT 32/19 A3003 RMK A01 T03210189  RH  046%=      5-min Rain = 0
KHA3 111904Z 19014KT 32/19 A3003 RMK A01 T03180189  RH  046%=      5-min Rain = 0
KHA3 111905Z 20012KT 32/19 A3003 RMK A01 T03210190  RH  046%=      5-min Rain = 0
KHA3 111906Z 20016KT 33/19 A3003 RMK A01 T03250190  RH  045%=      5-min Rain = 0
KHA3 111907Z 19015KT 33/19 A3003 RMK A01 T03260188  RH  044%=      5-min Rain = 0
KHA3 111908Z 19020KT 33/19 A3003 RMK A01 T03250189  RH  045%=      5-min Rain = 0
KHA3 111909Z 19016G22KT 32/19 A3003 RMK A01 T03210186  RH  045%=      5-min Rain = 0
KHA3 111910Z 19014KT 32/19 A3003 RMK A01 T03200188  RH  045%=      5-min Rain = 0
KHA3 111911Z 18018G24KT 32/19 A3003 RMK A01 T03230188  RH  045%=      5-min Rain = 0
KHA3 111912Z 18018KT 32/19 A3003 RMK A01 T03240186  RH  044%=      5-min Rain = 0
KHA3 111913Z 19016KT 33/19 A3003 RMK A01 T03280186  RH  043%=      5-min Rain = 0
KHA3 111914Z 18017KT 33/19 A3003 RMK A01 T03280185  RH  043%=      5-min Rain = 0
KHA3 111915Z 18015KT 33/19 A3003 RMK A01 T03260186  RH  044%=      5-min Rain = 0
KHA3 111916Z 18014KT 32/19 A3003 RMK A01 T03210186  RH  045%=      5-min Rain = 0
KHA3 111917Z 20011KT 32/19 A3003 RMK A01 T03200188  RH  046%=      5-min Rain = 0
KHA3 111918Z 19013KT 32/19 A3003 RMK A01 T03240191  RH  045%=      5-min Rain = 0
KHA3 111919Z 19014G22KT 33/19 A3002 RMK A01 T03290191  RH  044%=      5-min Rain = 0
KHA3 111920Z 19016KT 34/19 A3003 RMK A01 T03360189  RH  042%=      5-min Rain = 0
KHA3 111921Z 19017KT 34/19 A3003 RMK A01 T03370189  RH  042%=      5-min Rain = 0
KHA3 111922Z 19019KT 34/19 A3002 RMK A01 T03370188  RH  041%=      5-min Rain = 0
KHA3 111923Z 21017G22KT 34/19 A3002 RMK A01 T03350188  RH  042%=      5-min Rain = 0
KHA3 111924Z 20016KT 33/19 A3002 RMK A01 T03310188  RH  043%=      5-min Rain = 0
KHA3 111925Z 19017KT 33/19 A3002 RMK A01 T03300188  RH  043%=      5-min Rain = 0
KHA3 111926Z 18013KT 32/19 A3002 RMK A01 T03240187  RH  044%=      5-min Rain = 0
KHA3 111927Z 18014G20KT 33/19 A3002 RMK A01 T03260189  RH  044%=      5-min Rain = 0
KHA3 111928Z 20016KT 33/19 A3002 RMK A01 T03320189  RH  043%=      5-min Rain = 0
KHA3 111929Z 18013KT 33/19 A3002 RMK A01 T03300189  RH  043%=      5-min Rain = 0
KHA3 111930Z 17015KT 33/19 A3002 RMK A01 T03270189  RH  044%=      5-min Rain = 0
KHA3 111931Z 16014KT 32/19 A3002 RMK A01 T03240189  RH  045%=      5-min Rain = 0
KHA3 111932Z 18016G22KT 32/19 A3002 RMK A01 T03210189  RH  046%=      5-min Rain = 0
KHA3 111933Z 18012KT 32/19 A3002 RMK A01 T03210189  RH  046%=      5-min Rain = 0
KHA3 111934Z 18015G20KT 33/19 A3002 RMK A01 T03290192  RH  044%=      5-min Rain = 0
KHA3 111935Z 19017KT 34/19 A3002 RMK A01 T03360189  RH  042%=      5-min Rain = 0
KHA3 111936Z 19018KT 33/19 A3002 RMK A01 T03340188  RH  042%=      5-min Rain = 0
KHA3 111937Z 18015G20KT 33/19 A3002 RMK A01 T03300188  RH  043%=      5-min Rain = 0
KHA3 111938Z 19012G17KT 33/19 A3002 RMK A01 T03260189  RH  044%=      5-min Rain = 0
KHA3 111939Z 19017KT 33/19 A3001 RMK A01 T03280189  RH  044%=      5-min Rain = 0
KHA3 111940Z 19012KT 33/19 A3001 RMK A01 T03280189  RH  044%=      5-min Rain = 0
KHA3 111941Z 17012G18KT 33/19 A3001 RMK A01 T03280190  RH  044%=      5-min Rain = 0
KHA3 111942Z 17019KT 34/19 A3001 RMK A01 T03370191  RH  042%=      5-min Rain = 0
KHA3 111943Z 17018KT 34/19 A3001 RMK A01 T03400189  RH  041%=      5-min Rain = 0
KHA3 111944Z 18017G22KT 33/19 A3001 RMK A01 T03330187  RH  042%=      5-min Rain = 0
KHA3 111945Z 18016G21KT 33/19 A3001 RMK A01 T03290187  RH  043%=      5-min Rain = 0
KHA3 111946Z 19015KT 33/19 A3001 RMK A01 T03270187  RH  044%=      5-min Rain = 0
KHA3 111947Z 18018KT 33/19 A3001 RMK A01 T03300187  RH  043%=      5-min Rain = 0
KHA3 111948Z 17016G21KT 33/19 A3001 RMK A01 T03330188  RH  042%=      5-min Rain = 0
KHA3 111949Z 18016KT 33/19 A3001 RMK A01 T03330191  RH  043%=      5-min Rain = 0
KHA3 111950Z 18015KT 34/19 A3001 RMK A01 T03350191  RH  043%=      5-min Rain = 0
KHA3 111951Z 19015KT 34/19 A3001 RMK A01 T03360191  RH  042%=      5-min Rain = 0
KHA3 111952Z 18014KT 34/19 A3001 RMK A01 T03350191  RH  043%=      5-min Rain = 0
KHA3 111953Z 18012KT 34/19 A3001 RMK A01 T03350191  RH  043%=      5-min Rain = 0
KHA3 111954Z 20016KT 34/19 A3001 RMK A01 T03350190  RH  043%=      5-min Rain = 0
KHA3 111955Z 21014G19KT 33/19 A30 RMK A01 T03320188  RH  043%=      5-min Rain = 0
KHA3 111956Z 19021KT 34/19 A30 RMK A01 T03350187  RH  042%=      5-min Rain = 0
KHA3 111957Z 18016KT 34/19 A30 RMK A01 T03360187  RH  041%=      5-min Rain = 0
KHA3 111958Z 17016KT 34/19 A30 RMK A01 T03360188  RH  041%=      5-min Rain = 0
KHA3 111959Z 17015KT 33/19 A30 RMK A01 T03340188  RH  042%=      5-min Rain = 0
KHA3 112000Z 18016G21KT 33/19 A30 RMK A01 T03300189  RH  043%=      5-min Rain = 0
KHA3 112001Z 18016G22KT 33/19 A30 RMK A01 T03270188  RH  044%=      5-min Rain = 0
KHA3 112002Z 18015KT 32/19 A30 RMK A01 T03240188  RH  045%=      5-min Rain = 0
KHA3 112003Z 17012KT 33/19 A30 RMK A01 T03250190  RH  045%=      5-min Rain = 0
KHA3 112004Z 17012KT 33/19 A30 RMK A01 T03310189  RH  043%=      5-min Rain = 0
KHA3 112005Z 18014G20KT 34/19 A30 RMK A01 T03350190  RH  042%=      5-min Rain = 0
KHA3 112006Z 18018G23KT 34/19 A30 RMK A01 T03370189  RH  042%=      5-min Rain = 0
KHA3 112007Z 18016KT 34/19 A30 RMK A01 T03370190  RH  042%=      5-min Rain = 0
KHA3 112008Z 17017G22KT 34/19 A30 RMK A01 T03370189  RH  042%=      5-min Rain = 0
KHA3 112009Z 18018KT 34/19 A30 RMK A01 T03380188  RH  041%=      5-min Rain = 0
KHA3 112010Z 19015KT 34/19 A30 RMK A01 T03380189  RH  041%=      5-min Rain = 0
KHA3 112011Z 18015KT 34/19 A2999 RMK A01 T03380188  RH  041%=      5-min Rain = 0
KHA3 112012Z 19014KT 34/19 A2999 RMK A01 T03390189  RH  041%=      5-min Rain = 0
KHA3 112013Z 19013KT 34/19 A2999 RMK A01 T03380189  RH  041%=      5-min Rain = 0
KHA3 112014Z 18012KT 34/19 A2999 RMK A01 T03350189  RH  042%=      5-min Rain = 0
KHA3 112015Z 17010KT 33/19 A2999 RMK A01 T03340189  RH  042%=      5-min Rain = 0
KHA3 112016Z 19014G19KT 34/19 A2999 RMK A01 T03380190  RH  042%=      5-min Rain = 0
KHA3 112017Z 17015KT 35/19 A2999 RMK A01 T03450190  RH  040%=      5-min Rain = 0
KHA3 112018Z 17016G21KT 35/19 A2999 RMK A01 T03480188  RH  039%=      5-min Rain = 0
KHA3 112019Z 17018G23KT 35/19 A2999 RMK A01 T03450187  RH  039%=      5-min Rain = 0
KHA3 112020Z 16017G23KT 34/19 A2999 RMK A01 T03420187  RH  040%=      5-min Rain = 0
KHA3 112021Z 17018KT 34/19 A2999 RMK A01 T03410188  RH  040%=      5-min Rain = 0
KHA3 112022Z 17015KT 34/19 A2999 RMK A01 T03400187  RH  041%=      5-min Rain = 0
KHA3 112023Z 17011KT 34/19 A2999 RMK A01 T03370187  RH  041%=      5-min Rain = 0
KHA3 112024Z 17013KT 34/19 A2999 RMK A01 T03390187  RH  041%=      5-min Rain = 0
KHA3 112025Z 17013G19KT 35/19 A2999 RMK A01 T03450188  RH  040%=      5-min Rain = 0
KHA3 112026Z 17018KT 34/19 A2998 RMK A01 T03430187  RH  040%=      5-min Rain = 0
KHA3 112027Z 18016KT 34/19 A2998 RMK A01 T03410187  RH  040%=      5-min Rain = 0
KHA3 112028Z 18012KT 34/19 A2998 RMK A01 T03400187  RH  041%=      5-min Rain = 0
KHA3 112029Z 17015KT 34/19 A2998 RMK A01 T03410188  RH  040%=      5-min Rain = 0
KHA3 112030Z 18015KT 34/19 A2998 RMK A01 T03420187  RH  040%=      5-min Rain = 0
KHA3 112031Z 19017KT 34/19 A2998 RMK A01 T03380188  RH  041%=      5-min Rain = 0
KHA3 112032Z 18016KT 34/19 A2998 RMK A01 T03350187  RH  042%=      5-min Rain = 0
KHA3 112033Z 18016KT 34/19 A2998 RMK A01 T03350187  RH  041%=      5-min Rain = 0
KHA3 112034Z 19018KT 34/19 A2998 RMK A01 T03360185  RH  041%=      5-min Rain = 0
KHA3 112035Z 19016KT 33/19 A2998 RMK A01 T03330186  RH  042%=      5-min Rain = 0
KHA3 112036Z 17015KT 33/19 A2998 RMK A01 T03310187  RH  042%=      5-min Rain = 0
KHA3 112037Z 17016KT 33/19 A2998 RMK A01 T03290186  RH  043%=      5-min Rain = 0
KHA3 112038Z 19014KT 33/19 A2998 RMK A01 T03280185  RH  043%=      5-min Rain = 0
KHA3 112039Z 19014G20KT 33/19 A2998 RMK A01 T03330186  RH  042%=      5-min Rain = 0
KHA3 112040Z 16017G23KT 34/19 A2998 RMK A01 T03400188  RH  041%=      5-min Rain = 0
KHA3 112041Z 16017KT 34/19 A2998 RMK A01 T03410186  RH  040%=      5-min Rain = 0
KHA3 112042Z 16014G19KT 33/19 A2998 RMK A01 T03340185  RH  041%=      5-min Rain = 0
KHA3 112043Z 18013KT 33/19 A2998 RMK A01 T03310185  RH  042%=      5-min Rain = 0
KHA3 112044Z 19011KT 33/19 A2998 RMK A01 T03330185  RH  042%=      5-min Rain = 0
KHA3 112045Z 19011KT 34/19 A2998 RMK A01 T03360186  RH  041%=      5-min Rain = 0
KHA3 112046Z 18011KT 34/19 A2997 RMK A01 T03370188  RH  041%=      5-min Rain = 0
KHA3 112047Z 19016KT 34/19 A2997 RMK A01 T03430187  RH  040%=      5-min Rain = 0
KHA3 112048Z 18017KT 35/19 A2997 RMK A01 T03470186  RH  039%=      5-min Rain = 0
KHA3 112049Z 18019KT 35/19 A2997 RMK A01 T03460185  RH  039%=      5-min Rain = 0
KHA3 112050Z 18017KT 34/19 A2997 RMK A01 T03410185  RH  040%=      5-min Rain = 0
KHA3 112051Z 18018KT 34/19 A2997 RMK A01 T03380186  RH  041%=      5-min Rain = 0
KHA3 112052Z 17014KT 34/19 A2997 RMK A01 T03380186  RH  041%=      5-min Rain = 0
KHA3 112053Z 16015G20KT 34/19 A2997 RMK A01 T03390187  RH  041%=      5-min Rain = 0
KHA3 112054Z 20013KT 34/19 A2997 RMK A01 T03440189  RH  040%=      5-min Rain = 0
KHA3 112055Z 18012KT 35/19 A2997 RMK A01 T03450188  RH  040%=      5-min Rain = 0
KHA3 112056Z 19016G22KT 35/19 A2997 RMK A01 T03470188  RH  039%=      5-min Rain = 0
KHA3 112057Z 18018KT 35/19 A2997 RMK A01 T03490185  RH  038%=      5-min Rain = 0
KHA3 112058Z 18017KT 35/19 A2997 RMK A01 T03480185  RH  038%=      5-min Rain = 0
KHA3 112059Z 17017KT 34/18 A2997 RMK A01 T03440184  RH  039%=      5-min Rain = 0
KHA3 112100Z 17013KT 34/18 A2997 RMK A01 T03370184  RH  040%=      5-min Rain = 0
KHA3 112101Z 17014G19KT 34/19 A2997 RMK A01 T03380185  RH  040%=      5-min Rain = 0
KHA3 112102Z 16018KT 34/19 A2997 RMK A01 T03390187  RH  041%=      5-min Rain = 0
KHA3 112103Z 16018KT 34/19 A2997 RMK A01 T03360186  RH  041%=      5-min Rain = 0
KHA3 112104Z 16015KT 33/19 A2997 RMK A01 T03310186  RH  042%=      5-min Rain = 0
KHA3 112105Z 16013KT 33/19 A2997 RMK A01 T03280186  RH  043%=      5-min Rain = 0
KHA3 112106Z 15011KT 33/19 A2997 RMK A01 T03270186  RH  043%=      5-min Rain = 0
KHA3 112107Z 16011KT 33/19 A2997 RMK A01 T03320188  RH  043%=      5-min Rain = 0
KHA3 112108Z 16016G23KT 34/19 A2997 RMK A01 T03400189  RH  041%=      5-min Rain = 0
KHA3 112109Z 16015KT 34/19 A2997 RMK A01 T03430187  RH  040%=      5-min Rain = 0
KHA3 112110Z 15014G20KT 34/19 A2997 RMK A01 T03440187  RH  040%=      5-min Rain = 0
KHA3 112111Z 16013KT 35/19 A2997 RMK A01 T03450187  RH  040%=      5-min Rain = 0
KHA3 112112Z 14012KT 34/19 A2997 RMK A01 T03440187  RH  039%=      5-min Rain = 0
KHA3 112113Z 17012KT 35/19 A2996 RMK A01 T03470188  RH  039%=      5-min Rain = 0
KHA3 112114Z 18017KT 35/19 A2996 RMK A01 T03510188  RH  038%=      5-min Rain = 0
KHA3 112115Z 18016KT 35/19 A2996 RMK A01 T03490187  RH  038%=      5-min Rain = 0
KHA3 112116Z 17015KT 35/19 A2997 RMK A01 T03500187  RH  038%=      5-min Rain = 0
KHA3 112117Z 18016KT 35/19 A2996 RMK A01 T03510188  RH  038%=      5-min Rain = 0
KHA3 112118Z 17016KT 35/19 A2996 RMK A01 T03490187  RH  038%=      5-min Rain = 0
KHA3 112119Z 18017G24KT 35/19 A2996 RMK A01 T03460186  RH  039%=      5-min Rain = 0
KHA3 112120Z 17015G21KT 34/18 A2996 RMK A01 T03430184  RH  039%=      5-min Rain = 0
KHA3 112121Z 17017KT 34/18 A2996 RMK A01 T03370184  RH  040%=      5-min Rain = 0
KHA3 112122Z 17018KT 33/18 A2996 RMK A01 T03340184  RH  041%=      5-min Rain = 0
KHA3 112123Z 17017KT 33/18 A2996 RMK A01 T03340184  RH  041%=      5-min Rain = 0
KHA3 112124Z 17016KT 33/19 A2996 RMK A01 T03340185  RH  041%=      5-min Rain = 0
KHA3 112125Z 16013KT 33/19 A2996 RMK A01 T03330185  RH  042%=      5-min Rain = 0
KHA3 112126Z 16013KT 33/19 A2996 RMK A01 T03320185  RH  042%=      5-min Rain = 0
KHA3 112127Z 17016KT 33/19 A2996 RMK A01 T03340186  RH  042%=      5-min Rain = 0
KHA3 112128Z 16015KT 33/19 A2996 RMK A01 T03340186  RH  042%=      5-min Rain = 0
KHA3 112129Z 16015KT 34/19 A2996 RMK A01 T03360187  RH  041%=      5-min Rain = 0
KHA3 112130Z 17017KT 34/19 A2996 RMK A01 T03370186  RH  041%=      5-min Rain = 0
KHA3 112131Z 16014KT 33/19 A2996 RMK A01 T03330185  RH  041%=      5-min Rain = 0
KHA3 112132Z 17017KT 33/18 A2996 RMK A01 T03330184  RH  041%=      5-min Rain = 0
KHA3 112133Z 17017KT 34/18 A2996 RMK A01 T03370182  RH  040%=      5-min Rain = 0
KHA3 112134Z 18016G24KT 34/18 A2996 RMK A01 T03400184  RH  040%=      5-min Rain = 0
KHA3 112135Z 16017G23KT 34/18 A2996 RMK A01 T03430183  RH  039%=      5-min Rain = 0
KHA3 112136Z 17014G21KT 34/18 A2996 RMK A01 T03430184  RH  039%=      5-min Rain = 0
KHA3 112137Z 18020KT 34/19 A2996 RMK A01 T03440185  RH  039%=      5-min Rain = 0
KHA3 112138Z 18017KT 34/18 A2996 RMK A01 T03410184  RH  040%=      5-min Rain = 0
KHA3 112139Z 17017KT 34/18 A2996 RMK A01 T03400184  RH  040%=      5-min Rain = 0
KHA3 112140Z 17017KT 34/18 A2996 RMK A01 T03410184  RH  039%=      5-min Rain = 0
KHA3 112141Z 17012G17KT 34/18 A2996 RMK A01 T03420184  RH  039%=      5-min Rain = 0
KHA3 112142Z 16015KT 34/18 A2996 RMK A01 T03420184  RH  039%=      5-min Rain = 0
KHA3 112143Z 17019KT 34/19 A2996 RMK A01 T03410185  RH  040%=      5-min Rain = 0
KHA3 112144Z 16018KT 34/18 A2996 RMK A01 T03410184  RH  040%=      5-min Rain = 0
KHA3 112145Z 17015KT 34/18 A2996 RMK A01 T03360184  RH  041%=      5-min Rain = 0
KHA3 112146Z 17015KT 33/19 A2996 RMK A01 T03320185  RH  042%=      5-min Rain = 0
KHA3 112147Z 16013KT 33/19 A2996 RMK A01 T03310185  RH  042%=      5-min Rain = 0
KHA3 112148Z 16013G18KT 33/19 A2996 RMK A01 T03320186  RH  042%=      5-min Rain = 0
KHA3 112149Z 17015KT 34/19 A2996 RMK A01 T03380186  RH  041%=      5-min Rain = 0
KHA3 112150Z 17015KT 34/19 A2996 RMK A01 T03400186  RH  040%=      5-min Rain = 0
KHA3 112151Z 17014KT 34/19 A2996 RMK A01 T03400185  RH  040%=      5-min Rain = 0
KHA3 112152Z 17013KT 34/19 A2996 RMK A01 T03410186  RH  040%=      5-min Rain = 0
KHA3 112153Z 19016KT 34/19 A2996 RMK A01 T03430185  RH  039%=      5-min Rain = 0
KHA3 112154Z 18017G23KT 35/18 A2996 RMK A01 T03450184  RH  039%=      5-min Rain = 0
KHA3 112155Z 18014KT 35/18 A2996 RMK A01 T03460184  RH  039%=      5-min Rain = 0
KHA3 112156Z 18017KT 35/19 A2996 RMK A01 T03460185  RH  039%=      5-min Rain = 0
KHA3 112157Z 18018KT 34/18 A2996 RMK A01 T03400184  RH  040%=      5-min Rain = 0
KHA3 112158Z 18014KT 33/19 A2996 RMK A01 T03340185  RH  041%=      5-min Rain = 0
KHA3 112159Z 18011KT 33/19 A2996 RMK A01 T03310185  RH  042%=      5-min Rain = 0
KHA3 112200Z 18011KT 33/19 A2996 RMK A01 T03310185  RH  042%=      5-min Rain = 0
KHA3 112201Z 18013KT 33/18 A2996 RMK A01 T03310184  RH  042%=      5-min Rain = 0
KHA3 112202Z 16017KT 33/18 A2995 RMK A01 T03310184  RH  042%=      5-min Rain = 0
KHA3 112203Z 17014KT 33/18 A2995 RMK A01 T03290183  RH  042%=      5-min Rain = 0
KHA3 112204Z 17014KT 33/18 A2995 RMK A01 T03290182  RH  042%=      5-min Rain = 0
KHA3 112205Z 17013KT 33/18 A2995 RMK A01 T03290183  RH  042%=      5-min Rain = 0
KHA3 112206Z 16015KT 33/18 A2995 RMK A01 T03300184  RH  042%=      5-min Rain = 0
KHA3 112207Z 15015KT 33/19 A2995 RMK A01 T03300185  RH  042%=      5-min Rain = 0
KHA3 112208Z 16013KT 33/19 A2995 RMK A01 T03300185  RH  042%=      5-min Rain = 0
KHA3 112209Z 16014KT 33/19 A2995 RMK A01 T03310186  RH  042%=      5-min Rain = 0
KHA3 112210Z 17011KT 33/19 A2995 RMK A01 T03320186  RH  042%=      5-min Rain = 0
KHA3 112211Z 18016KT 33/19 A2995 RMK A01 T03330187  RH  042%=      5-min Rain = 0
KHA3 112212Z 18018KT 33/19 A2995 RMK A01 T03320185  RH  042%=      5-min Rain = 0
KHA3 112213Z 18017G22KT 33/19 A2995 RMK A01 T03300185  RH  042%=      5-min Rain = 0
KHA3 112214Z 17016KT 33/18 A2995 RMK A01 T03310183  RH  042%=      5-min Rain = 0
KHA3 112215Z 17016KT 33/18 A2995 RMK A01 T03320181  RH  041%=      5-min Rain = 0
KHA3 112216Z 17019KT 33/18 A2995 RMK A01 T03320182  RH  041%=      5-min Rain = 0
KHA3 112217Z 17020KT 33/18 A2995 RMK A01 T03300180  RH  041%=      5-min Rain = 0
KHA3 112218Z 17016KT 33/18 A2995 RMK A01 T03280179  RH  041%=      5-min Rain = 0
KHA3 112219Z 16016KT 33/18 A2995 RMK A01 T03270181  RH  042%=      5-min Rain = 0
KHA3 112220Z 17012KT 33/18 A2995 RMK A01 T03260183  RH  043%=      5-min Rain = 0
KHA3 112221Z 17018G25KT 33/18 A2995 RMK A01 T03260184  RH  043%=      5-min Rain = 0
KHA3 112222Z 16019KT 33/19 A2995 RMK A01 T03250185  RH  044%=      5-min Rain = 0
KHA3 112223Z 17017KT 32/19 A2995 RMK A01 T03230186  RH  044%=      5-min Rain = 0
KHA3 112224Z 17018G23KT 32/19 A2995 RMK A01 T03230186  RH  044%=      5-min Rain = 0
KHA3 112225Z 17017KT 32/19 A2995 RMK A01 T03230186  RH  044%=      5-min Rain = 0
KHA3 112226Z 17017KT 32/19 A2995 RMK A01 T03220186  RH  044%=      5-min Rain = 0
KHA3 112227Z 17014KT 32/19 A2995 RMK A01 T03220186  RH  044%=      5-min Rain = 0
KHA3 112228Z 17013G18KT 32/19 A2995 RMK A01 T03220186  RH  044%=      5-min Rain = 0
KHA3 112229Z 17016KT 32/19 A2995 RMK A01 T03220186  RH  044%=      5-min Rain = 0
KHA3 112230Z 17015KT 32/19 A2995 RMK A01 T03220185  RH  044%=      5-min Rain = 0
KHA3 112231Z 17015KT 32/19 A2995 RMK A01 T03220185  RH  044%=      5-min Rain = 0
KHA3 112232Z 17015KT 32/19 A2995 RMK A01 T03220185  RH  044%=      5-min Rain = 0
KHA3 112233Z 16014KT 32/19 A2995 RMK A01 T03220185  RH  044%=      5-min Rain = 0
KHA3 112234Z 16013KT 32/19 A2995 RMK A01 T03230186  RH  044%=      5-min Rain = 0
KHA3 112235Z 17013KT 32/19 A2995 RMK A01 T03230186  RH  044%=      5-min Rain = 0
KHA3 112236Z 17012G17KT 32/19 A2995 RMK A01 T03230185  RH  044%=      5-min Rain = 0
KHA3 112237Z 17014KT 32/19 A2995 RMK A01 T03230185  RH  044%=      5-min Rain = 0
KHA3 112238Z 16015KT 32/19 A2995 RMK A01 T03240185  RH  044%=      5-min Rain = 0
KHA3 112239Z 17013KT 32/19 A2995 RMK A01 T03240185  RH  044%=      5-min Rain = 0
KHA3 112240Z 16014KT 33/19 A2995 RMK A01 T03270186  RH  043%=      5-min Rain = 0
KHA3 112241Z 16017KT 33/18 A2995 RMK A01 T03300184  RH  042%=      5-min Rain = 0
KHA3 112242Z 16016KT 33/18 A2995 RMK A01 T03310184  RH  042%=      5-min Rain = 0
KHA3 112243Z 16017KT 33/19 A2995 RMK A01 T03310185  RH  042%=      5-min Rain = 0
KHA3 112244Z 17018KT 33/19 A2995 RMK A01 T03280194  RH  045%=      5-min Rain = 0
KHA3 112245Z 18021G28KT 32/20 A2995 RMK A01 T03170201  RH  050%=      5-min Rain = 0
KHA3 112246Z 18023KT 31/20 A2995 RMK A01 T03100203  RH  053%=      5-min Rain = 0
KHA3 112247Z 18022G29KT 31/20 A2995 RMK A01 T03070203  RH  054%=      5-min Rain = 0
KHA3 112248Z 18022KT 31/20 A2995 RMK A01 T03060203  RH  054%=      5-min Rain = 0
KHA3 112249Z 18022KT 31/20 A2995 RMK A01 T03060203  RH  054%=      5-min Rain = 0
KHA3 112250Z 18019KT 31/20 A2995 RMK A01 T03060204  RH  054%=      5-min Rain = 0
KHA3 112251Z 19021G27KT 31/20 A2995 RMK A01 T03060204  RH  054%=      5-min Rain = 0
KHA3 112252Z 18025G30KT 30/20 A2996 RMK A01 T03040203  RH  055%=      5-min Rain = 0
KHA3 112253Z 18023KT 30/20 A2996 RMK A01 T03000203  RH  056%=      5-min Rain = 0
KHA3 112254Z 18024KT 30/20 A2996 RMK A01 T02980202  RH  056%=      5-min Rain = 0
KHA3 112255Z 18022KT 30/20 A2996 RMK A01 T02970201  RH  056%=      5-min Rain = 0
KHA3 112256Z 18024KT 30/20 A2996 RMK A01 T02970200  RH  056%=      5-min Rain = 0
KHA3 112257Z 18024KT 30/20 A2996 RMK A01 T02960198  RH  055%=      5-min Rain = 0
KHA3 112258Z 18022KT 30/20 A2996 RMK A01 T02960197  RH  055%=      5-min Rain = 0
KHA3 112259Z 18020KT 30/20 A2996 RMK A01 T02970200  RH  056%=      5-min Rain = 0
KHA3 112300Z 19020G26KT 30/20 A2996 RMK A01 T03000201  RH  055%=      5-min Rain = 0
KHA3 112301Z 18022KT 30/20 A2996 RMK A01 T03020200  RH  054%=      5-min Rain = 0
KHA3 112302Z 18020KT 30/20 A2996 RMK A01 T03030200  RH  054%=      5-min Rain = 0
KHA3 112303Z 18018G25KT 31/20 A2996 RMK A01 T03050199  RH  053%=      5-min Rain = 0
KHA3 112304Z 18022KT 31/20 A2996 RMK A01 T03060199  RH  053%=      5-min Rain = 0
KHA3 112305Z 18019KT 31/20 A2996 RMK A01 T03070199  RH  052%=      5-min Rain = 0
KHA3 112306Z 18019KT 31/20 A2996 RMK A01 T03070198  RH  052%=      5-min Rain = 0
KHA3 112307Z 18016KT 31/20 A2996 RMK A01 T03080198  RH  052%=      5-min Rain = 0
KHA3 112308Z 18015KT 31/20 A2996 RMK A01 T03100199  RH  052%=      5-min Rain = 0
KHA3 112309Z 18016KT 31/20 A2996 RMK A01 T03120199  RH  051%=      5-min Rain = 0
KHA3 112310Z 18017KT 31/20 A2996 RMK A01 T03140199  RH  050%=      5-min Rain = 0
KHA3 112311Z 18017KT 31/20 A2996 RMK A01 T03130198  RH  050%=      5-min Rain = 0
KHA3 112312Z 18014KT 31/20 A2996 RMK A01 T03120199  RH  051%=      5-min Rain = 0
KHA3 112313Z 19014KT 31/20 A2996 RMK A01 T03120199  RH  051%=      5-min Rain = 0
KHA3 112314Z 19015KT 31/20 A2996 RMK A01 T03120198  RH  051%=      5-min Rain = 0
KHA3 112315Z 18012KT 31/20 A2996 RMK A01 T03100199  RH  051%=      5-min Rain = 0
KHA3 112316Z 19010KT 31/20 A2996 RMK A01 T03090199  RH  052%=      5-min Rain = 0
KHA3 112317Z 18009KT 31/20 A2996 RMK A01 T03100199  RH  052%=      5-min Rain = 0
KHA3 112318Z 18014KT 31/20 A2995 RMK A01 T03120198  RH  051%=      5-min Rain = 0
KHA3 112319Z 18015KT 31/20 A2995 RMK A01 T03090197  RH  051%=      5-min Rain = 0
KHA3 112320Z 19012KT 31/20 A2995 RMK A01 T03060196  RH  052%=      5-min Rain = 0
KHA3 112321Z 18015KT 31/20 A2995 RMK A01 T03060196  RH  052%=      5-min Rain = 0
KHA3 112322Z 18017KT 31/20 A2995 RMK A01 T03070195  RH  051%=      5-min Rain = 0
KHA3 112323Z 19015KT 31/19 A2995 RMK A01 T03080194  RH  051%=      5-min Rain = 0
KHA3 112324Z 19015KT 31/19 A2995 RMK A01 T03090194  RH  050%=      5-min Rain = 0
KHA3 112325Z 18015KT 31/19 A2996 RMK A01 T03100194  RH  050%=      5-min Rain = 0
KHA3 112326Z 18014KT 31/19 A2996 RMK A01 T03110194  RH  050%=      5-min Rain = 0
KHA3 112327Z 18015KT 31/19 A2995 RMK A01 T03110193  RH  050%=      5-min Rain = 0
KHA3 112328Z 18016KT 31/19 A2995 RMK A01 T03110193  RH  049%=      5-min Rain = 0
KHA3 112329Z 18016KT 31/19 A2995 RMK A01 T03110192  RH  049%=      5-min Rain = 0
KHA3 112330Z 18015KT 31/19 A2995 RMK A01 T03120191  RH  049%=      5-min Rain = 0
KHA3 112331Z 19017KT 31/19 A2995 RMK A01 T03120191  RH  049%=      5-min Rain = 0
KHA3 112332Z 18015KT 31/19 A2995 RMK A01 T03130191  RH  048%=      5-min Rain = 0
KHA3 112333Z 18018G23KT 31/19 A2995 RMK A01 T03130192  RH  048%=      5-min Rain = 0
KHA3 112334Z 17017KT 31/19 A2995 RMK A01 T03120191  RH  048%=      5-min Rain = 0
KHA3 112335Z 18015KT 31/19 A2995 RMK A01 T03120192  RH  049%=      5-min Rain = 0
KHA3 112336Z 18014KT 31/19 A2996 RMK A01 T03120192  RH  049%=      5-min Rain = 0
KHA3 112337Z 19016KT 31/19 A2996 RMK A01 T03130192  RH  049%=      5-min Rain = 0
KHA3 112338Z 18016KT 31/19 A2996 RMK A01 T03120192  RH  049%=      5-min Rain = 0
KHA3 112339Z 18015KT 31/19 A2996 RMK A01 T03120192  RH  049%=      5-min Rain = 0
KHA3 112340Z 18017KT 31/19 A2996 RMK A01 T03120191  RH  049%=      5-min Rain = 0
KHA3 112341Z 18018KT 31/19 A2996 RMK A01 T03130192  RH  049%=      5-min Rain = 0
KHA3 112342Z 18015KT 31/19 A2996 RMK A01 T03110192  RH  049%=      5-min Rain = 0
KHA3 112343Z 18014KT 31/19 A2996 RMK A01 T03100192  RH  050%=      5-min Rain = 0
KHA3 112344Z 19019KT 31/19 A2996 RMK A01 T03100192  RH  049%=      5-min Rain = 0
KHA3 112345Z 18019KT 31/19 A2996 RMK A01 T03110191  RH  049%=      5-min Rain = 0
KHA3 112346Z 18020KT 31/19 A2996 RMK A01 T03110191  RH  049%=      5-min Rain = 0
KHA3 112347Z 18018KT 31/19 A2996 RMK A01 T03110191  RH  049%=      5-min Rain = 0
KHA3 112348Z 18020KT 31/19 A2995 RMK A01 T03110191  RH  049%=      5-min Rain = 0
KHA3 112349Z 17019KT 31/19 A2995 RMK A01 T03110192  RH  049%=      5-min Rain = 0
KHA3 112350Z 17017G22KT 31/19 A2996 RMK A01 T03110193  RH  049%=      5-min Rain = 0
KHA3 112351Z 18017KT 31/19 A2995 RMK A01 T03100192  RH  049%=      5-min Rain = 0
KHA3 112352Z 18014KT 31/19 A2995 RMK A01 T03100192  RH  050%=      5-min Rain = 0
KHA3 112353Z 17014KT 31/19 A2995 RMK A01 T03100192  RH  050%=      5-min Rain = 0
KHA3 112354Z 18017KT 31/19 A2995 RMK A01 T03100192  RH  049%=      5-min Rain = 0
KHA3 112355Z 18017KT 31/19 A2995 RMK A01 T03110192  RH  049%=      5-min Rain = 0
KHA3 112356Z 18017KT 31/19 A2995 RMK A01 T03110191  RH  049%=      5-min Rain = 0
KHA3 112357Z 18017KT 31/19 A2995 RMK A01 T03100190  RH  049%=      5-min Rain = 0
KHA3 112358Z 18016KT 31/19 A2996 RMK A01 T03090189  RH  049%=      5-min Rain = 0
KHA3 112359Z 18017KT 31/19 A2996 RMK A01 T03090189  RH  049%=      5-min Rain = 0
KHA3 120000Z 17017KT 31/19 A2996 RMK A01 T03090190  RH  049%=      5-min Rain = 0
KHA3 120001Z 17019KT 31/19 A2996 RMK A01 T03080189  RH  049%=      5-min Rain = 0
KHA3 120002Z 18020KT 31/19 A2996 RMK A01 T03070187  RH  049%=      5-min Rain = 0
KHA3 120003Z 18017KT 31/19 A2996 RMK A01 T03070187  RH  049%=      5-min Rain = 0
KHA3 120004Z 18016KT 31/19 A2996 RMK A01 T03060188  RH  049%=      5-min Rain = 0
KHA3 120005Z 18018KT 31/19 A2996 RMK A01 T03060188  RH  049%=      5-min Rain = 0
KHA3 120006Z 18016KT 31/19 A2996 RMK A01 T03060187  RH  049%=      5-min Rain = 0
KHA3 120007Z 18016KT 31/19 A2996 RMK A01 T03060187  RH  049%=      5-min Rain = 0
KHA3 120008Z 18016KT 31/19 A2996 RMK A01 T03050186  RH  049%=      5-min Rain = 0
KHA3 120009Z 18017KT 31/19 A2996 RMK A01 T03050186  RH  049%=      5-min Rain = 0
KHA3 120010Z 17016KT 31/19 A2996 RMK A01 T03050186  RH  049%=      5-min Rain = 0
KHA3 120011Z 17016KT 30/19 A2996 RMK A01 T03040186  RH  049%=      5-min Rain = 0
KHA3 120012Z 18015KT 30/19 A2996 RMK A01 T03030185  RH  049%=      5-min Rain = 0
KHA3 120013Z 18016G21KT 30/19 A2996 RMK A01 T03030185  RH  049%=      5-min Rain = 0
KHA3 120014Z 18015KT 30/18 A2996 RMK A01 T03030183  RH  049%=      5-min Rain = 0
KHA3 120015Z 18015KT 30/18 A2996 RMK A01 T03020183  RH  049%=      5-min Rain = 0
KHA3 120016Z 18012KT 30/18 A2996 RMK A01 T03020183  RH  049%=      5-min Rain = 0
KHA3 120017Z 18014KT 30/18 A2997 RMK A01 T03010183  RH  049%=      5-min Rain = 0
KHA3 120018Z 18013KT 30/18 A2997 RMK A01 T03010183  RH  049%=      5-min Rain = 0
KHA3 120019Z 18013KT 30/18 A2997 RMK A01 T03010183  RH  049%=      5-min Rain = 0
KHA3 120020Z 18012KT 30/18 A2997 RMK A01 T03000183  RH  049%=      5-min Rain = 0
KHA3 120021Z 18014KT 30/18 A2997 RMK A01 T03000183  RH  050%=      5-min Rain = 0
KHA3 120022Z 18013KT 30/18 A2997 RMK A01 T03000183  RH  050%=      5-min Rain = 0
KHA3 120023Z 18013KT 30/18 A2997 RMK A01 T02990183  RH  050%=      5-min Rain = 0
KHA3 120024Z 18010KT 30/18 A2997 RMK A01 T02990183  RH  050%=      5-min Rain = 0
KHA3 120025Z 18015KT 30/18 A2997 RMK A01 T02990183  RH  050%=      5-min Rain = 0
KHA3 120026Z 18011KT 30/18 A2997 RMK A01 T02990183  RH  050%=      5-min Rain = 0
KHA3 120027Z 18013KT 30/18 A2997 RMK A01 T02990183  RH  050%=      5-min Rain = 0
KHA3 120028Z 18012KT 30/18 A2997 RMK A01 T02980182  RH  050%=      5-min Rain = 0
KHA3 120029Z 18011KT 30/18 A2997 RMK A01 T02980183  RH  050%=      5-min Rain = 0
KHA3 120030Z 18013KT 30/18 A2997 RMK A01 T02980183  RH  050%=      5-min Rain = 0
KHA3 120031Z 18012KT 30/18 A2997 RMK A01 T02980183  RH  050%=      5-min Rain = 0
KHA3 120032Z 18013KT 30/18 A2997 RMK A01 T02970183  RH  050%=      5-min Rain = 0
KHA3 120033Z 19013KT 30/18 A2997 RMK A01 T02970183  RH  050%=      5-min Rain = 0
KHA3 120034Z 18013KT 30/18 A2997 RMK A01 T02980183  RH  050%=      5-min Rain = 0
KHA3 120035Z 18011KT 30/18 A2997 RMK A01 T02970183  RH  050%=      5-min Rain = 0
KHA3 120036Z 18011KT 30/18 A2997 RMK A01 T02970183  RH  050%=      5-min Rain = 0
KHA3 120037Z 18012KT 30/18 A2997 RMK A01 T02970183  RH  050%=      5-min Rain = 0
KHA3 120038Z 18012KT 30/18 A2997 RMK A01 T02960183  RH  051%=      5-min Rain = 0
KHA3 120039Z 18013KT 30/18 A2997 RMK A01 T02960183  RH  051%=      5-min Rain = 0
KHA3 120040Z 18011KT 30/18 A2997 RMK A01 T02960183  RH  051%=      5-min Rain = 0
KHA3 120041Z 18010KT 30/18 A2997 RMK A01 T02960184  RH  051%=      5-min Rain = 0
KHA3 120042Z 18011KT 30/18 A2997 RMK A01 T02950184  RH  051%=      5-min Rain = 0
KHA3 120043Z 18012KT 30/18 A2997 RMK A01 T02950183  RH  051%=      5-min Rain = 0
KHA3 120044Z 17011KT 29/18 A2997 RMK A01 T02940183  RH  051%=      5-min Rain = 0
KHA3 120045Z 18010KT 29/18 A2997 RMK A01 T02940183  RH  051%=      5-min Rain = 0
KHA3 120046Z 18010KT 29/18 A2997 RMK A01 T02940183  RH  051%=      5-min Rain = 0
KHA3 120047Z 19012KT 29/18 A2997 RMK A01 T02930183  RH  052%=      5-min Rain = 0
KHA3 120048Z 18011KT 29/18 A2997 RMK A01 T02930183  RH  051%=      5-min Rain = 0
KHA3 120049Z 18010KT 29/18 A2997 RMK A01 T02930183  RH  051%=      5-min Rain = 0
KHA3 120050Z 18009KT 29/18 A2997 RMK A01 T02920183  RH  052%=      5-min Rain = 0
KHA3 120051Z 18011KT 29/18 A2997 RMK A01 T02920183  RH  052%=      5-min Rain = 0
KHA3 120052Z 18010KT 29/18 A2997 RMK A01 T02920183  RH  052%=      5-min Rain = 0
KHA3 120053Z 18009KT 29/18 A2997 RMK A01 T02910183  RH  052%=      5-min Rain = 0
KHA3 120054Z 18009KT 29/18 A2997 RMK A01 T02910183  RH  052%=      5-min Rain = 0
KHA3 120055Z 18010KT 29/18 A2997 RMK A01 T02900183  RH  052%=      5-min Rain = 0
KHA3 120056Z 18008KT 29/18 A2997 RMK A01 T02900183  RH  052%=      5-min Rain = 0
KHA3 120057Z 18009KT 29/18 A2997 RMK A01 T02890183  RH  053%=      5-min Rain = 0
KHA3 120058Z 17008KT 29/18 A2997 RMK A01 T02890183  RH  053%=      5-min Rain = 0
KHA3 120059Z 17009KT 29/18 A2997 RMK A01 T02890183  RH  053%=      5-min Rain = 0
KHA3 120100Z 17008KT 29/18 A2997 RMK A01 T02880183  RH  053%=      5-min Rain = 0
KHA3 120101Z 17007KT 29/18 A2997 RMK A01 T02880183  RH  053%=      5-min Rain = 0
KHA3 120102Z 18008KT 29/18 A2997 RMK A01 T02870183  RH  053%=      5-min Rain = 0
KHA3 120103Z 17009KT 29/18 A2998 RMK A01 T02870183  RH  054%=      5-min Rain = 0
KHA3 120104Z 18009KT 29/18 A2998 RMK A01 T02860183  RH  054%=      5-min Rain = 0
KHA3 120105Z 18010KT 29/18 A2998 RMK A01 T02860183  RH  054%=      5-min Rain = 0
KHA3 120106Z 18011KT 29/18 A2998 RMK A01 T02860184  RH  054%=      5-min Rain = 0
KHA3 120107Z 18008KT 29/18 A2998 RMK A01 T02860184  RH  054%=      5-min Rain = 0
KHA3 120108Z 18009KT 29/18 A2998 RMK A01 T02860184  RH  054%=      5-min Rain = 0
KHA3 120109Z 18009KT 29/18 A2998 RMK A01 T02860184  RH  054%=      5-min Rain = 0
KHA3 120110Z 18010KT 29/18 A2998 RMK A01 T02850184  RH  054%=      5-min Rain = 0
KHA3 120111Z 18010KT 29/18 A2998 RMK A01 T02850183  RH  054%=      5-min Rain = 0
KHA3 120112Z 18009KT 29/18 A2998 RMK A01 T02850183  RH  054%=      5-min Rain = 0
KHA3 120113Z 18009KT 29/18 A2998 RMK A01 T02850183  RH  054%=      5-min Rain = 0
KHA3 120114Z 18009KT 29/18 A2998 RMK A01 T02850183  RH  054%=      5-min Rain = 0
KHA3 120115Z 18008KT 28/18 A2998 RMK A01 T02840182  RH  054%=      5-min Rain = 0
KHA3 120116Z 18009KT 28/18 A2998 RMK A01 T02840183  RH  054%=      5-min Rain = 0
KHA3 120117Z 17009KT 28/18 A2998 RMK A01 T02840182  RH  054%=      5-min Rain = 0
KHA3 120118Z 18010KT 28/18 A2998 RMK A01 T02840182  RH  054%=      5-min Rain = 0
KHA3 120119Z 17010KT 28/18 A2998 RMK A01 T02840182  RH  054%=      5-min Rain = 0
KHA3 120120Z 17009KT 28/18 A2998 RMK A01 T02840182  RH  054%=      5-min Rain = 0
KHA3 120121Z 18010KT 28/18 A2998 RMK A01 T02840182  RH  054%=      5-min Rain = 0
KHA3 120122Z 17011KT 28/18 A2998 RMK A01 T02830182  RH  054%=      5-min Rain = 0
KHA3 120123Z 17011KT 28/18 A2998 RMK A01 T02830181  RH  054%=      5-min Rain = 0
KHA3 120124Z 17012KT 28/18 A2998 RMK A01 T02840182  RH  054%=      5-min Rain = 0
KHA3 120125Z 17009KT 28/18 A2998 RMK A01 T02840182  RH  054%=      5-min Rain = 0
KHA3 120126Z 18009KT 28/18 A2998 RMK A01 T02840182  RH  054%=      5-min Rain = 0
KHA3 120127Z 17010KT 28/18 A2998 RMK A01 T02830182  RH  054%=      5-min Rain = 0
KHA3 120128Z 17010KT 28/18 A2998 RMK A01 T02820182  RH  054%=      5-min Rain = 0
KHA3 120129Z 17010KT 28/18 A2998 RMK A01 T02820182  RH  055%=      5-min Rain = 0
KHA3 120130Z 16011KT 28/18 A2998 RMK A01 T02820182  RH  055%=      5-min Rain = 0
KHA3 120131Z 16011KT 28/18 A2998 RMK A01 T02810182  RH  055%=      5-min Rain = 0
KHA3 120132Z 16012KT 28/18 A2998 RMK A01 T02810182  RH  055%=      5-min Rain = 0
KHA3 120133Z 17011KT 28/18 A2998 RMK A01 T02810183  RH  055%=      5-min Rain = 0
KHA3 120134Z 17011KT 28/18 A2998 RMK A01 T02810183  RH  055%=      5-min Rain = 0
KHA3 120135Z 16012KT 28/18 A2998 RMK A01 T02820183  RH  055%=      5-min Rain = 0
KHA3 120136Z 16011KT 28/18 A2998 RMK A01 T02820183  RH  055%=      5-min Rain = 0
KHA3 120137Z 16010KT 28/18 A2998 RMK A01 T02820183  RH  055%=      5-min Rain = 0
KHA3 120138Z 16009KT 28/18 A2998 RMK A01 T02820184  RH  055%=      5-min Rain = 0
KHA3 120139Z 16010KT 28/18 A2998 RMK A01 T02820184  RH  055%=      5-min Rain = 0
KHA3 120140Z 16011KT 28/18 A2998 RMK A01 T02810183  RH  055%=      5-min Rain = 0
KHA3 120141Z 16010KT 28/18 A2998 RMK A01 T02810184  RH  056%=      5-min Rain = 0
KHA3 120142Z 16009KT 28/18 A2998 RMK A01 T02800183  RH  056%=      5-min Rain = 0
KHA3 120143Z 16010KT 28/18 A2999 RMK A01 T02800184  RH  056%=      5-min Rain = 0
KHA3 120144Z 16009KT 28/18 A2999 RMK A01 T02790183  RH  056%=      5-min Rain = 0
KHA3 120145Z 16010KT 28/18 A2999 RMK A01 T02780183  RH  056%=      5-min Rain = 0
KHA3 120146Z 16009KT 28/18 A2999 RMK A01 T02780184  RH  056%=      5-min Rain = 0
KHA3 120147Z 16010KT 28/18 A2999 RMK A01 T02780184  RH  057%=      5-min Rain = 0
KHA3 120148Z 16009KT 28/18 A2999 RMK A01 T02770184  RH  057%=      5-min Rain = 0
KHA3 120149Z 15008KT 28/18 A2999 RMK A01 T02770183  RH  057%=      5-min Rain = 0
KHA3 120150Z 16008KT 28/18 A2999 RMK A01 T02770184  RH  057%=      5-min Rain = 0
KHA3 120151Z 15009KT 28/18 A2999 RMK A01 T02760183  RH  057%=      5-min Rain = 0
KHA3 120152Z 15009KT 28/18 A2999 RMK A01 T02760184  RH  057%=      5-min Rain = 0
KHA3 120153Z 16009KT 28/18 A2999 RMK A01 T02760184  RH  057%=      5-min Rain = 0
KHA3 120154Z 15009KT 28/18 A2999 RMK A01 T02760183  RH  057%=      5-min Rain = 0
KHA3 120155Z 15009KT 28/18 A2999 RMK A01 T02760184  RH  057%=      5-min Rain = 0
KHA3 120156Z 15008KT 28/18 A2999 RMK A01 T02760184  RH  057%=      5-min Rain = 0
KHA3 120157Z 15008KT 28/18 A2999 RMK A01 T02760184  RH  057%=      5-min Rain = 0
KHA3 120158Z 15008KT 28/18 A2999 RMK A01 T02760184  RH  057%=      5-min Rain = 0
KHA3 120159Z 15009KT 28/18 A2999 RMK A01 T02760184  RH  057%=      5-min Rain = 0
KHA3 120200Z 14009KT 28/18 A2999 RMK A01 T02760184  RH  057%=      5-min Rain = 0
KHA3 120201Z 14009KT 28/18 A2999 RMK A01 T02760184  RH  057%=      5-min Rain = 0
KHA3 120202Z 14008KT 28/18 A2999 RMK A01 T02750184  RH  057%=      5-min Rain = 0
KHA3 120203Z 14009KT 28/18 A2999 RMK A01 T02760184  RH  057%=      5-min Rain = 0
KHA3 120204Z 15009KT 28/18 A2999 RMK A01 T02750184  RH  057%=      5-min Rain = 0
KHA3 120205Z 14010KT 28/18 A2999 RMK A01 T02760184  RH  057%=      5-min Rain = 0
KHA3 120206Z 14010KT 28/19 A2999 RMK A01 T02760185  RH  057%=      5-min Rain = 0
KHA3 120207Z 15009KT 28/18 A2999 RMK A01 T02760184  RH  057%=      5-min Rain = 0
KHA3 120208Z 15009KT 28/18 A2999 RMK A01 T02760184  RH  057%=      5-min Rain = 0
KHA3 120209Z 15009KT 28/19 A2999 RMK A01 T02760185  RH  058%=      5-min Rain = 0
KHA3 120210Z 15009KT 28/18 A2999 RMK A01 T02750184  RH  058%=      5-min Rain = 0
KHA3 120211Z 15012KT 28/19 A30 RMK A01 T02760185  RH  058%=      5-min Rain = 0
KHA3 120212Z 15010KT 28/19 A30 RMK A01 T02760185  RH  058%=      5-min Rain = 0
KHA3 120213Z 15011KT 28/19 A30 RMK A01 T02760185  RH  058%=      5-min Rain = 0
KHA3 120214Z 15010KT 28/19 A30 RMK A01 T02760185  RH  058%=      5-min Rain = 0
KHA3 120215Z 15012KT 28/19 A30 RMK A01 T02760185  RH  058%=      5-min Rain = 0
KHA3 120216Z 15011KT 28/19 A30 RMK A01 T02760185  RH  057%=      5-min Rain = 0
KHA3 120217Z 14011KT 28/19 A30 RMK A01 T02760185  RH  057%=      5-min Rain = 0
KHA3 120218Z 15010KT 28/19 A30 RMK A01 T02760185  RH  058%=      5-min Rain = 0
KHA3 120219Z 15012KT 28/19 A30 RMK A01 T02760185  RH  058%=      5-min Rain = 0
KHA3 120220Z 15010KT 28/19 A30 RMK A01 T02770185  RH  057%=      5-min Rain = 0
KHA3 120221Z 15011KT 28/19 A30 RMK A01 T02770185  RH  057%=      5-min Rain = 0
KHA3 120222Z 15011KT 28/19 A30 RMK A01 T02770185  RH  057%=      5-min Rain = 0
KHA3 120223Z 15011KT 28/19 A30 RMK A01 T02760185  RH  058%=      5-min Rain = 0
KHA3 120224Z 15012KT 28/19 A30 RMK A01 T02760185  RH  058%=      5-min Rain = 0
KHA3 120225Z 15012KT 28/19 A30 RMK A01 T02760185  RH  058%=      5-min Rain = 0
KHA3 120226Z 15012KT 28/19 A30 RMK A01 T02770185  RH  058%=      5-min Rain = 0
KHA3 120227Z 15010G15KT 28/19 A30 RMK A01 T02760185  RH  058%=      5-min Rain = 0
KHA3 120228Z 15011KT 28/19 A30 RMK A01 T02760185  RH  058%=      5-min Rain = 0
KHA3 120229Z 15012KT 28/19 A30 RMK A01 T02750185  RH  058%=      5-min Rain = 0
KHA3 120230Z 15011KT 28/19 A30 RMK A01 T02760185  RH  058%=      5-min Rain = 0
KHA3 120231Z 15011KT 28/19 A30 RMK A01 T02760185  RH  058%=      5-min Rain = 0
KHA3 120232Z 15012KT 28/19 A30 RMK A01 T02750185  RH  058%=      5-min Rain = 0
KHA3 120233Z 15013KT 28/19 A30 RMK A01 T02750185  RH  058%=      5-min Rain = 0
KHA3 120234Z 15013KT 28/19 A30 RMK A01 T02750185  RH  058%=      5-min Rain = 0
KHA3 120235Z 15014KT 28/19 A30 RMK A01 T02750185  RH  058%=      5-min Rain = 0
KHA3 120236Z 15013KT 28/19 A30 RMK A01 T02750185  RH  058%=      5-min Rain = 0
KHA3 120237Z 15012KT 28/19 A30 RMK A01 T02750185  RH  058%=      5-min Rain = 0
KHA3 120238Z 16012G19KT 28/19 A30 RMK A01 T02750185  RH  058%=      5-min Rain = 0
KHA3 120239Z 15014KT 28/19 A30 RMK A01 T02750185  RH  058%=      5-min Rain = 0
KHA3 120240Z 16013KT 28/19 A30 RMK A01 T02750185  RH  058%=      5-min Rain = 0
KHA3 120241Z 15012KT 28/19 A30 RMK A01 T02750185  RH  058%=      5-min Rain = 0
KHA3 120242Z 15014KT 27/19 A30 RMK A01 T02740185  RH  058%=      5-min Rain = 0
KHA3 120243Z 15014KT 28/19 A30 RMK A01 T02750185  RH  058%=      5-min Rain = 0
KHA3 120244Z 15014KT 28/19 A30 RMK A01 T02750185  RH  058%=      5-min Rain = 0
KHA3 120245Z 15011KT 28/19 A30 RMK A01 T02750185  RH  058%=      5-min Rain = 0
KHA3 120246Z 15013KT 27/19 A30 RMK A01 T02740185  RH  058%=      5-min Rain = 0
KHA3 120247Z 15013KT 27/19 A30 RMK A01 T02740185  RH  058%=      5-min Rain = 0
KHA3 120248Z 15013KT 27/18 A30 RMK A01 T02740184  RH  058%=      5-min Rain = 0
KHA3 120249Z 15012KT 27/19 A30 RMK A01 T02740185  RH  058%=      5-min Rain = 0
KHA3 120250Z 16012KT 27/19 A3001 RMK A01 T02740185  RH  058%=      5-min Rain = 0
KHA3 120251Z 16013KT 27/18 A3001 RMK A01 T02730184  RH  058%=      5-min Rain = 0
KHA3 120252Z 15013KT 27/19 A3001 RMK A01 T02730185  RH  058%=      5-min Rain = 0
KHA3 120253Z 16014KT 27/18 A3001 RMK A01 T02730184  RH  058%=      5-min Rain = 0
KHA3 120254Z 16012KT 27/19 A3001 RMK A01 T02740185  RH  058%=      5-min Rain = 0
KHA3 120255Z 16013KT 27/19 A3001 RMK A01 T02740185  RH  058%=      5-min Rain = 0
KHA3 120256Z 16012KT 27/18 A3001 RMK A01 T02730184  RH  058%=      5-min Rain = 0
KHA3 120257Z 15012KT 27/19 A3001 RMK A01 T02730185  RH  058%=      5-min Rain = 0
KHA3 120258Z 16014KT 27/19 A3001 RMK A01 T02730185  RH  058%=      5-min Rain = 0
KHA3 120259Z 16012KT 27/18 A3001 RMK A01 T02730184  RH  058%=      5-min Rain = 0
KHA3 120300Z 16013KT 27/19 A3001 RMK A01 T02730185  RH  058%=      5-min Rain = 0
KHA3 120301Z 16010KT 27/19 A3001 RMK A01 T02730185  RH  058%=      5-min Rain = 0
KHA3 120302Z 16010KT 27/19 A3001 RMK A01 T02730185  RH  059%=      5-min Rain = 0
KHA3 120303Z 16012KT 27/19 A3001 RMK A01 T02730185  RH  059%=      5-min Rain = 0
KHA3 120304Z 16012KT 27/19 A3001 RMK A01 T02720185  RH  059%=      5-min Rain = 0
KHA3 120305Z 16013KT 27/19 A3001 RMK A01 T02720185  RH  059%=      5-min Rain = 0
KHA3 120306Z 15013KT 27/19 A3001 RMK A01 T02720185  RH  059%=      5-min Rain = 0
KHA3 120307Z 16012KT 27/19 A3001 RMK A01 T02730185  RH  059%=      5-min Rain = 0
KHA3 120308Z 16011KT 27/19 A3001 RMK A01 T02730185  RH  059%=      5-min Rain = 0
KHA3 120309Z 16011KT 27/19 A3001 RMK A01 T02720185  RH  059%=      5-min Rain = 0
KHA3 120310Z 16011KT 27/19 A3001 RMK A01 T02720185  RH  059%=      5-min Rain = 0
KHA3 120311Z 16013KT 27/19 A3001 RMK A01 T02720185  RH  059%=      5-min Rain = 0
KHA3 120312Z 16012KT 27/19 A3001 RMK A01 T02720185  RH  059%=      5-min Rain = 0
KHA3 120313Z 15012KT 27/19 A3001 RMK A01 T02720185  RH  059%=      5-min Rain = 0
KHA3 120314Z 15011KT 27/19 A3001 RMK A01 T02720185  RH  059%=      5-min Rain = 0
KHA3 120315Z 16010KT 27/19 A3001 RMK A01 T02720185  RH  059%=      5-min Rain = 0
KHA3 120316Z 15012KT 27/19 A3001 RMK A01 T02710185  RH  059%=      5-min Rain = 0
KHA3 120317Z 16013KT 27/19 A3001 RMK A01 T02710185  RH  059%=      5-min Rain = 0
KHA3 120318Z 16012KT 27/19 A3001 RMK A01 T02720186  RH  059%=      5-min Rain = 0
KHA3 120319Z 15010KT 27/19 A3001 RMK A01 T02710185  RH  059%=      5-min Rain = 0
KHA3 120320Z 16010KT 27/19 A3001 RMK A01 T02710185  RH  059%=      5-min Rain = 0
KHA3 120321Z 16012KT 27/19 A3001 RMK A01 T02710185  RH  059%=      5-min Rain = 0
KHA3 120322Z 16012KT 27/19 A3001 RMK A01 T02710185  RH  060%=      5-min Rain = 0
KHA3 120323Z 17012KT 27/19 A3001 RMK A01 T02710186  RH  060%=      5-min Rain = 0
KHA3 120324Z 16011KT 27/19 A3001 RMK A01 T02710186  RH  060%=      5-min Rain = 0
KHA3 120325Z 16011KT 27/19 A3001 RMK A01 T02710186  RH  060%=      5-min Rain = 0
KHA3 120326Z 16012KT 27/19 A3001 RMK A01 T02700186  RH  060%=      5-min Rain = 0
KHA3 120327Z 17011KT 27/19 A3001 RMK A01 T02700186  RH  060%=      5-min Rain = 0
KHA3 120328Z 17011KT 27/19 A3001 RMK A01 T02700186  RH  060%=      5-min Rain = 0
KHA3 120329Z 17012KT 27/19 A3001 RMK A01 T02700185  RH  060%=      5-min Rain = 0
KHA3 120330Z 16011KT 27/19 A3001 RMK A01 T02700186  RH  060%=      5-min Rain = 0
KHA3 120331Z 17010KT 27/19 A3001 RMK A01 T02700185  RH  060%=      5-min Rain = 0
KHA3 120332Z 16012KT 27/19 A3001 RMK A01 T02690186  RH  060%=      5-min Rain = 0
KHA3 120333Z 16011KT 27/19 A3001 RMK A01 T02690186  RH  060%=      5-min Rain = 0
KHA3 120334Z 16011KT 27/19 A3001 RMK A01 T02690186  RH  060%=      5-min Rain = 0
KHA3 120335Z 16012KT 27/19 A3001 RMK A01 T02690186  RH  060%=      5-min Rain = 0
KHA3 120336Z 16010KT 27/19 A3001 RMK A01 T02690185  RH  060%=      5-min Rain = 0
KHA3 120337Z 16011KT 27/19 A3001 RMK A01 T02690186  RH  060%=      5-min Rain = 0
KHA3 120338Z 17011KT 27/19 A3001 RMK A01 T02690186  RH  060%=      5-min Rain = 0
KHA3 120339Z 17009KT 27/19 A3001 RMK A01 T02690186  RH  060%=      5-min Rain = 0
KHA3 120340Z 17010KT 27/19 A3001 RMK A01 T02690186  RH  060%=      5-min Rain = 0
KHA3 120341Z 17012KT 27/19 A3001 RMK A01 T02680186  RH  061%=      5-min Rain = 0
KHA3 120342Z 17011KT 27/19 A3001 RMK A01 T02690186  RH  060%=      5-min Rain = 0
KHA3 120343Z 17010KT 27/19 A3001 RMK A01 T02690186  RH  060%=      5-min Rain = 0
KHA3 120344Z 17009KT 27/19 A3001 RMK A01 T02690186  RH  060%=      5-min Rain = 0
KHA3 120345Z 16010KT 27/19 A3001 RMK A01 T02690186  RH  060%=      5-min Rain = 0
KHA3 120346Z 16010KT 27/19 A3001 RMK A01 T02690186  RH  061%=      5-min Rain = 0
KHA3 120347Z 16010KT 27/19 A3001 RMK A01 T02680186  RH  061%=      5-min Rain = 0
KHA3 120348Z 16009KT 27/19 A3001 RMK A01 T02680186  RH  061%=      5-min Rain = 0
KHA3 120349Z 16010KT 27/19 A3001 RMK A01 T02680186  RH  061%=      5-min Rain = 0
KHA3 120350Z 16010KT 27/19 A3001 RMK A01 T02680187  RH  061%=      5-min Rain = 0
KHA3 120351Z 16009KT 27/19 A3002 RMK A01 T02680186  RH  061%=      5-min Rain = 0
KHA3 120352Z 16010KT 27/19 A3002 RMK A01 T02680187  RH  061%=      5-min Rain = 0
KHA3 120353Z 15010KT 27/19 A3002 RMK A01 T02670186  RH  061%=      5-min Rain = 0
KHA3 120354Z 15010KT 27/19 A3002 RMK A01 T02670186  RH  061%=      5-min Rain = 0
KHA3 120355Z 16010KT 27/19 A3002 RMK A01 T02670186  RH  061%=      5-min Rain = 0
KHA3 120356Z 16008KT 27/19 A3002 RMK A01 T02670186  RH  061%=      5-min Rain = 0
KHA3 120357Z 16009KT 27/19 A3002 RMK A01 T02670187  RH  061%=      5-min Rain = 0
KHA3 120358Z 17008KT 27/19 A3002 RMK A01 T02670187  RH  061%=      5-min Rain = 0
KHA3 120359Z 17008KT 27/19 A3002 RMK A01 T02660187  RH  062%=      5-min Rain = 0
KHA3 120400Z 16008KT 27/19 A3002 RMK A01 T02660187  RH  062%=      5-min Rain = 0
KHA3 120401Z 16009KT 27/19 A3002 RMK A01 T02650186  RH  062%=      5-min Rain = 0
KHA3 120402Z 16009KT 27/19 A3002 RMK A01 T02650187  RH  062%=      5-min Rain = 0
KHA3 120403Z 16009KT 27/19 A3002 RMK A01 T02650187  RH  062%=      5-min Rain = 0
KHA3 120404Z 16009KT 27/19 A3002 RMK A01 T02650186  RH  062%=      5-min Rain = 0
KHA3 120405Z 16009KT 27/19 A3002 RMK A01 T02650187  RH  062%=      5-min Rain = 0
KHA3 120406Z 16009KT 27/19 A3002 RMK A01 T02650187  RH  062%=      5-min Rain = 0
KHA3 120407Z 16009KT 27/19 A3002 RMK A01 T02650186  RH  062%=      5-min Rain = 0
KHA3 120408Z 16009KT 27/19 A3002 RMK A01 T02650187  RH  062%=      5-min Rain = 0
KHA3 120409Z 16009KT 27/19 A3002 RMK A01 T02650187  RH  062%=      5-min Rain = 0
KHA3 120410Z 16009KT 27/19 A3002 RMK A01 T02650187  RH  062%=      5-min Rain = 0
KHA3 120411Z 15009KT 27/19 A3002 RMK A01 T02650186  RH  062%=      5-min Rain = 0
KHA3 120412Z 15008KT 27/19 A3002 RMK A01 T02650187  RH  062%=      5-min Rain = 0
KHA3 120413Z 15007KT 27/19 A3002 RMK A01 T02650187  RH  062%=      5-min Rain = 0
KHA3 120414Z 15007KT 27/19 A3002 RMK A01 T02650187  RH  062%=      5-min Rain = 0
KHA3 120415Z 15007KT 27/19 A3002 RMK A01 T02650187  RH  062%=      5-min Rain = 0
KHA3 120416Z 16008KT 27/19 A3002 RMK A01 T02650187  RH  062%=      5-min Rain = 0
KHA3 120417Z 15009KT 27/19 A3002 RMK A01 T02650187  RH  062%=      5-min Rain = 0
KHA3 120418Z 15009KT 26/19 A3002 RMK A01 T02640187  RH  062%=      5-min Rain = 0
KHA3 120419Z 15008KT 26/19 A3002 RMK A01 T02640186  RH  062%=      5-min Rain = 0
KHA3 120420Z 16008KT 27/19 A3002 RMK A01 T02650186  RH  062%=      5-min Rain = 0
KHA3 120421Z 16007KT 27/19 A3002 RMK A01 T02650186  RH  062%=      5-min Rain = 0
KHA3 120422Z 15008KT 27/19 A3002 RMK A01 T02650187  RH  062%=      5-min Rain = 0
KHA3 120423Z 16009KT 26/19 A3002 RMK A01 T02640187  RH  062%=      5-min Rain = 0
KHA3 120424Z 15010KT 26/19 A3002 RMK A01 T02640186  RH  062%=      5-min Rain = 0
KHA3 120425Z 15010KT 27/19 A3002 RMK A01 T02650187  RH  062%=      5-min Rain = 0
KHA3 120426Z 15009KT 27/19 A3002 RMK A01 T02650187  RH  062%=      5-min Rain = 0
KHA3 120427Z 15009KT 27/19 A3002 RMK A01 T02650187  RH  062%=      5-min Rain = 0
KHA3 120428Z 15009KT 27/19 A3002 RMK A01 T02650187  RH  062%=      5-min Rain = 0
KHA3 120429Z 15008KT 26/19 A3002 RMK A01 T02640187  RH  062%=      5-min Rain = 0
KHA3 120430Z 15009KT 26/19 A3002 RMK A01 T02640187  RH  062%=      5-min Rain = 0
KHA3 120431Z 15009KT 26/19 A3002 RMK A01 T02640187  RH  063%=      5-min Rain = 0
KHA3 120432Z 15009KT 26/19 A3002 RMK A01 T02630187  RH  063%=      5-min Rain = 0
KHA3 120433Z 16010KT 26/19 A3002 RMK A01 T02630187  RH  063%=      5-min Rain = 0
KHA3 120434Z 15009KT 26/19 A3002 RMK A01 T02630187  RH  063%=      5-min Rain = 0
KHA3 120435Z 15008KT 26/19 A3002 RMK A01 T02630187  RH  063%=      5-min Rain = 0
KHA3 120436Z 16009KT 26/19 A3002 RMK A01 T02630187  RH  063%=      5-min Rain = 0
KHA3 120437Z 16009KT 26/19 A3002 RMK A01 T02630187  RH  063%=      5-min Rain = 0
KHA3 120438Z 15010KT 26/19 A3002 RMK A01 T02630187  RH  063%=      5-min Rain = 0
KHA3 120439Z 16010KT 26/19 A3002 RMK A01 T02630187  RH  063%=      5-min Rain = 0
KHA3 120440Z 16009KT 26/19 A3002 RMK A01 T02630187  RH  063%=      5-min Rain = 0
KHA3 120441Z 15009KT 26/19 A3002 RMK A01 T02630187  RH  063%=      5-min Rain = 0
KHA3 120442Z 15008KT 26/19 A3002 RMK A01 T02640187  RH  063%=      5-min Rain = 0
KHA3 120443Z 15009KT 26/19 A3002 RMK A01 T02630187  RH  063%=      5-min Rain = 0
KHA3 120444Z 15009KT 26/19 A3002 RMK A01 T02630187  RH  063%=      5-min Rain = 0
KHA3 120445Z 15009KT 26/19 A3002 RMK A01 T02620187  RH  063%=      5-min Rain = 0
KHA3 120446Z 15009KT 26/19 A3002 RMK A01 T02620187  RH  064%=      5-min Rain = 0
KHA3 120447Z 14010KT 26/19 A3002 RMK A01 T02610187  RH  064%=      5-min Rain = 0
KHA3 120448Z 15010KT 26/19 A3002 RMK A01 T02610187  RH  064%=      5-min Rain = 0
KHA3 120449Z 15010KT 26/19 A3002 RMK A01 T02610187  RH  064%=      5-min Rain = 0
KHA3 120450Z 15010KT 26/19 A3002 RMK A01 T02610187  RH  064%=      5-min Rain = 0
KHA3 120451Z 15011KT 26/19 A3002 RMK A01 T02620187  RH  064%=      5-min Rain = 0
KHA3 120452Z 15011KT 26/19 A3002 RMK A01 T02620187  RH  064%=      5-min Rain = 0
KHA3 120453Z 15010KT 26/19 A3002 RMK A01 T02620187  RH  064%=      5-min Rain = 0
KHA3 120454Z 15010KT 26/19 A3002 RMK A01 T02620187  RH  063%=      5-min Rain = 0
KHA3 120455Z 15011KT 26/19 A3001 RMK A01 T02620187  RH  063%=      5-min Rain = 0
KHA3 120456Z 14010KT 26/19 A3001 RMK A01 T02620188  RH  063%=      5-min Rain = 0
KHA3 120457Z 15010KT 26/19 A3001 RMK A01 T02620188  RH  064%=      5-min Rain = 0
KHA3 120458Z 15010KT 26/19 A3001 RMK A01 T02620188  RH  064%=      5-min Rain = 0
KHA3 120459Z 15009KT 26/19 A3001 RMK A01 T02620188  RH  064%=      5-min Rain = 0

Page generated in 0.0777 seconds.